[{"header": {"dx": 0.06612293990616946, "dy": 0.0552356325346848, "nx": 98, "ny": 59, "la1": 35.046912555036876, "la2": 31.78801023549047, "lo1": -121.43107172385933, "lo2": -114.95102361305473, "refTime": "2026041000", "parameterCategory": 1, "parameterNumber": 2}, "data": [4.47, 4.47, 4.44, 4.44, 4.88, 4.88, 4.88, 4.44, 4.44, 3.98, 4.02, 4.02, 5.81, 6.2, 6.65, 6.71, 7.15, 7.15, 7.6, 7.6, 7.6, 7.94, 7.55, 8.45, 8.45, 8.94, 8.94, 8.94, 8.94, 8.9, 7.85, 3.79, 0.0, 0.0, 1.13, 2.0, 2.53, 2.76, 3.63, 4.54, 5.43, 6.21, 7.6, 8.22, 9.21, 9.24, 9.75, 9.97, 10.14, 9.8, 9.83, 9.8, 10.14, 10.45, 10.68, 11.37, 11.5, 11.75, 12.15, 12.15, 12.15, 12.15, 11.75, 11.75, 11.75, 12.04, 12.04, 12.3, 12.3, 12.09, 12.09, 11.61, 11.18, 11.18, 11.18, 11.36, 11.51, 10.63, 11.15, 10.28, 9.83, 9.39, 9.39, 8.9, 8.9, 8.46, 8.45, 8.01, 8.05, 7.6, 7.15, 6.71, 6.26, 6.26, 6.65, 6.16, 5.37, 4.26, 4.47, 4.47, 4.47, 4.44, 4.44, 4.88, 4.88, 4.44, 4.44, 3.98, 3.58, 4.92, 5.81, 6.2, 7.5, 7.5, 6.65, 8.05, 7.6, 6.71, 8.05, 7.6, 7.94, 8.38, 7.55, 8.45, 8.94, 8.94, 8.94, 8.9, 7.63, 4.11, 0.0, 0.99, 2.23, 2.68, 2.76, 2.76, 2.99, 3.63, 4.74, 6.28, 7.07, 7.44, 8.43, 8.95, 9.24, 9.06, 8.9, 8.94, 8.8, 9.24, 9.6, 10.4, 11.04, 11.26, 11.83, 11.83, 11.83, 12.15, 12.15, 11.75, 11.75, 12.04, 12.3, 11.87, 12.09, 12.09, 12.09, 12.09, 11.37, 11.37, 11.37, 11.37, 11.37, 11.18, 11.36, 10.63, 11.15, 10.28, 9.83, 9.39, 9.39, 8.9, 8.9, 8.46, 8.45, 8.01, 8.05, 7.6, 7.15, 6.71, 6.26, 6.26, 6.65, 6.16, 5.37, 4.26, 4.47, 4.47, 4.47, 4.47, 4.44, 4.44, 4.44, 4.44, 4.44, 3.98, 3.53, 3.58, 5.36, 6.2, 6.51, 6.94, 7.37, 7.42, 7.54, 8.05, 7.15, 8.05, 8.05, 7.94, 8.41, 8.0, 8.45, 8.49, 8.49, 8.77, 7.63, 4.11, 0.88, 2.0, 2.53, 3.48, 2.68, 2.76, 2.6, 3.47, 4.65, 5.69, 6.73, 7.41, 8.05, 8.0, 7.63, 7.6, 7.85, 8.0, 9.05, 9.67, 10.28, 10.29, 10.73, 11.64, 11.83, 12.15, 12.15, 12.15, 12.15, 12.04, 12.04, 11.87, 12.09, 12.09, 11.84, 11.84, 11.61, 10.96, 10.63, 10.63, 10.8, 11.09, 11.37, 11.18, 11.36, 11.06, 10.26, 10.28, 9.39, 9.35, 8.9, 8.45, 7.92, 7.92, 7.45, 8.0, 7.55, 7.15, 6.26, 5.81, 5.75, 5.59, 5.58, 5.06, 5.24, 5.24, 4.47, 4.47, 4.47, 4.47, 4.44, 4.44, 4.44, 4.34, 4.3, 3.98, 3.53, 3.53, 5.29, 6.2, 6.51, 6.94, 7.12, 7.53, 7.85, 7.85, 7.55, 8.05, 7.6, 7.6, 8.0, 8.85, 8.01, 8.49, 8.45, 8.33, 7.35, 4.29, 2.6, 3.22, 3.48, 3.48, 2.98, 3.22, 2.47, 3.55, 4.26, 5.59, 6.73, 6.79, 6.82, 6.94, 6.65, 6.82, 7.76, 8.65, 9.21, 10.29, 10.29, 10.66, 10.87, 11.6, 11.75, 12.15, 12.15, 12.15, 12.04, 12.3, 12.09, 12.09, 11.84, 11.84, 11.36, 10.52, 10.09, 9.82, 10.66, 10.87, 11.5, 11.03, 11.23, 11.51, 11.15, 10.7, 10.28, 9.83, 8.91, 8.9, 8.33, 7.85, 7.42, 7.42, 6.94, 6.65, 6.26, 6.2, 5.6, 5.6, 5.58, 5.06, 5.24, 4.83, 5.24, 4.95, 4.47, 4.47, 4.47, 4.47, 4.47, 4.44, 4.44, 4.34, 4.3, 3.87, 3.39, 3.39, 5.29, 6.17, 6.51, 7.12, 7.21, 7.63, 7.35, 7.63, 8.06, 7.5, 7.6, 7.6, 7.15, 8.49, 7.94, 8.05, 7.6, 6.65, 6.45, 5.15, 3.55, 4.58, 5.06, 4.74, 3.47, 2.8, 2.47, 2.82, 4.42, 4.95, 5.77, 5.82, 5.75, 5.75, 6.39, 7.27, 8.22, 8.93, 9.66, 10.28, 10.28, 10.66, 11.2, 11.6, 11.75, 12.15, 12.15, 12.56, 12.37, 12.58, 12.09, 11.84, 11.84, 10.93, 9.6, 9.0, 9.17, 9.89, 10.63, 11.26, 11.3, 11.18, 11.05, 10.26, 10.28, 9.83, 9.39, 8.94, 8.91, 8.33, 7.85, 6.94, 6.45, 5.81, 5.29, 5.09, 4.54, 5.15, 5.06, 5.37, 4.42, 4.26, 5.1, 4.83, 5.37, 5.49, 4.47, 4.47, 4.47, 4.47, 4.47, 4.44, 4.44, 4.34, 4.3, 3.87, 3.39, 3.39, 5.26, 5.94, 6.88, 7.12, 7.21, 7.53, 7.35, 7.35, 7.2, 7.12, 7.5, 7.15, 7.15, 7.15, 7.15, 7.01, 6.58, 7.01, 6.2, 6.26, 6.21, 6.45, 6.44, 5.77, 4.43, 2.95, 0.96, 1.84, 2.6, 4.43, 4.22, 4.92, 5.21, 6.64, 7.48, 8.93, 8.93, 9.3, 9.67, 9.67, 10.63, 11.02, 11.2, 11.75, 11.75, 12.04, 12.56, 12.8, 12.58, 12.27, 11.84, 11.52, 10.68, 8.67, 7.36, 7.63, 9.06, 10.24, 10.9, 11.6, 11.62, 11.61, 10.6, 9.8, 9.39, 8.9, 8.45, 8.49, 8.0, 7.1, 6.2, 4.92, 3.9, 3.16, 3.63, 3.47, 4.29, 4.58, 4.42, 4.03, 3.4, 4.03, 4.95, 5.37, 5.49, 5.15, 4.47, 4.47, 4.47, 4.47, 4.47, 4.44, 4.44, 4.34, 4.3, 3.87, 3.39, 3.39, 5.29, 6.02, 7.63, 7.12, 7.63, 8.06, 7.76, 7.6, 7.6, 7.76, 7.63, 7.54, 7.6, 7.15, 7.15, 7.01, 7.06, 6.6, 7.6, 6.94, 7.15, 7.63, 7.47, 7.21, 6.65, 4.66, 0.0, 0.0, 1.55, 2.53, 3.6, 3.68, 5.21, 6.7, 8.12, 9.26, 8.93, 10.04, 10.04, 10.04, 10.63, 11.2, 11.2, 12.04, 12.04, 12.3, 12.58, 12.74, 12.27, 11.96, 11.51, 9.75, 7.68, 6.7, 7.25, 7.9, 9.56, 10.29, 11.2, 12.04, 11.95, 12.27, 11.06, 9.7, 9.35, 8.45, 8.45, 7.55, 6.71, 5.36, 3.35, 0.98, -0.0, 0.81, 2.6, 3.47, 4.43, 3.47, 3.11, 3.11, 2.64, 3.72, 4.74, 5.15, 5.15, 5.15, 4.47, 4.47, 4.47, 4.47, 4.47, 4.44, 4.44, 4.34, 4.34, 4.11, 3.2, 2.68, 4.98, 6.0, 7.2, 6.44, 7.03, 8.3, 7.89, 8.3, 8.3, 8.4, 9.06, 9.06, 8.45, 8.94, 8.05, 7.5, 7.63, 8.06, 8.06, 7.94, 8.05, 7.6, 6.98, 7.35, 7.47, 7.37, 5.36, 2.53, 2.68, 2.0, 2.82, 3.52, 4.66, 6.98, 7.9, 8.93, 9.27, 9.88, 9.65, 10.23, 11.2, 11.2, 11.5, 11.5, 11.37, 11.66, 11.84, 11.84, 11.51, 11.06, 9.54, 6.64, 5.72, 7.13, 8.05, 9.17, 9.66, 10.28, 11.5, 12.09, 12.74, 12.41, 11.59, 10.26, 9.8, 8.9, 8.45, 7.55, 6.21, 4.15, 0.87, -0.0, -0.0, 0.79, 2.41, 3.93, 3.48, 2.95, 1.66, 1.55, 1.99, 3.63, 4.54, 5.21, 4.81, 4.29, 4.47, 4.47, 4.47, 4.47, 4.47, 4.44, 4.44, 4.77, 4.6, 4.11, 3.35, 2.84, 4.74, 5.58, 6.6, 6.55, 6.45, 7.07, 7.42, 7.6, 8.0, 8.22, 8.17, 8.99, 9.06, 9.76, 8.94, 8.05, 7.94, 8.49, 8.94, 8.49, 7.94, 6.9, 6.01, 7.41, 8.93, 8.63, 7.63, 6.0, 5.06, 4.96, 4.88, 4.66, 6.01, 6.64, 8.49, 9.08, 10.01, 10.29, 11.12, 10.23, 10.63, 10.63, 10.96, 10.85, 10.68, 10.25, 10.45, 10.45, 10.6, 8.8, 6.11, 4.17, 5.55, 7.93, 8.95, 9.56, 9.66, 10.63, 11.37, 11.89, 12.94, 12.05, 11.18, 10.73, 9.83, 9.39, 8.49, 7.6, 6.71, 4.15, 0.99, -0.0, -0.0, 1.2, 2.21, 2.98, 1.98, 0.87, -0.0, -0.0, 0.87, 2.68, 3.79, 4.54, 3.91, 3.72, 4.47, 4.47, 4.47, 4.47, 4.47, 4.44, 4.88, 4.77, 4.6, 4.6, 4.27, 4.07, 4.37, 4.94, 6.55, 6.55, 6.45, 6.45, 6.98, 6.63, 6.63, 6.63, 7.07, 8.0, 8.22, 9.03, 8.85, 8.49, 8.49, 9.39, 9.39, 8.94, 7.63, 5.31, 6.32, 8.15, 9.97, 8.14, 7.81, 8.15, 7.9, 8.22, 7.59, 6.32, 6.39, 7.41, 8.06, 9.05, 10.28, 10.66, 10.66, 10.28, 9.67, 9.67, 9.65, 9.42, 9.03, 8.63, 8.95, 9.49, 8.77, 5.77, 4.32, 4.87, 6.4, 7.69, 8.95, 9.17, 9.21, 10.04, 11.18, 11.53, 12.05, 12.07, 11.6, 10.96, 10.45, 9.54, 8.82, 7.92, 6.26, 3.74, 1.74, 0.99, 0.85, 1.9, 2.6, 2.6, 0.99, -0.0, -0.87, -0.87, -0.0, 0.98, 2.95, 2.76, 2.6, 3.47, 4.47, 4.47, 4.47, 4.47, 4.47, 4.44, 4.88, 4.77, 4.6, 4.8, 4.8, 4.93, 5.75, 6.28, 8.17, 8.3, 8.17, 4.66, 5.14, 5.7, 8.56, 8.48, 8.06, 7.81, 8.41, 8.41, 8.94, 8.49, 8.49, 8.94, 9.83, 9.21, 7.2, 5.69, 5.82, 8.41, 9.76, 9.2, 8.03, 9.62, 10.28, 9.66, 8.38, 7.56, 7.44, 6.79, 7.81, 8.43, 9.03, 9.27, 9.3, 9.27, 8.93, 8.22, 7.59, 7.18, 7.08, 7.59, 8.05, 7.63, 5.82, 4.13, 4.13, 5.62, 6.6, 8.18, 8.46, 8.05, 8.01, 9.0, 10.15, 11.23, 11.99, 12.07, 12.33, 11.3, 10.0, 9.03, 8.4, 7.63, 5.36, 3.48, 2.98, 2.68, 2.68, 3.16, 3.16, 3.22, 0.99, -1.8, -3.16, -2.68, -1.8, -0.0, 2.0, 1.83, 2.53, 2.53, 4.47, 4.47, 4.47, 4.47, 4.44, 4.88, 4.77, 4.8, 5.09, 5.09, 5.31, 5.08, 5.75, 6.8, 7.81, 9.11, 8.87, 9.39, 9.82, 10.27, 10.27, 10.27, 9.82, 12.07, 10.73, 10.73, 11.18, 7.13, 9.79, 8.94, 9.32, 9.92, 9.2, 7.42, 7.55, 8.49, 8.82, 9.42, 8.65, 10.01, 10.66, 10.29, 9.3, 8.54, 6.28, 5.82, 7.07, 7.81, 8.54, 8.37, 7.59, 8.22, 7.36, 6.45, 5.0, 4.87, 6.21, 7.73, 8.43, 6.21, 3.15, 3.14, 4.91, 5.45, 6.4, 7.11, 7.32, 7.45, 7.13, 8.3, 9.57, 11.04, 11.75, 12.07, 10.95, 9.65, 7.68, 6.64, 6.01, 4.8, 3.93, 3.33, 4.16, 3.91, 3.72, 4.81, 4.46, 3.84, -0.0, -3.16, -4.46, -3.16, -2.53, -0.0, -0.0, 1.13, 1.98, 1.98, 4.47, 4.47, 4.47, 4.47, 4.44, 4.88, 4.8, 5.24, 5.09, 5.09, 5.31, 5.6, 6.0, 6.8, 7.81, 9.11, 10.22, 10.73, 11.57, 11.95, 12.46, 12.84, 12.85, 12.92, 12.92, 12.92, 12.92, 12.85, 11.95, 9.82, 10.28, 10.6, 10.45, 9.97, 9.36, 8.33, 8.4, 9.03, 8.67, 9.65, 10.63, 11.2, 9.65, 7.82, 6.64, 6.0, 6.52, 7.6, 7.81, 7.56, 6.32, 5.94, 5.49, 3.7, 3.61, 3.53, 5.86, 9.17, 9.03, 5.77, 2.49, 3.14, 4.71, 5.67, 5.55, 5.73, 5.99, 6.47, 6.4, 7.93, 10.12, 10.9, 9.03, 6.26, 3.79, 2.8, 1.63, 1.84, 2.68, 2.98, 3.0, 4.83, 6.06, 6.44, 5.06, 5.15, 5.58, 4.22, -0.0, -4.22, -5.34, -4.15, -2.6, -1.9, -0.0, -0.0, -0.0, 1.58, 4.47, 4.47, 4.47, 4.47, 4.44, 4.88, 4.8, 5.24, 5.09, 5.51, 5.4, 5.81, 6.1, 6.6, 7.51, 8.48, 9.68, 10.67, 11.18, 11.61, 12.06, 12.47, 12.91, 12.85, 13.3, 13.74, 13.75, 14.11, 13.67, 12.91, 11.18, 11.18, 11.62, 10.28, 9.7, 8.14, 7.89, 8.4, 8.55, 8.95, 10.01, 10.25, 10.47, 9.11, 7.21, 6.64, 6.28, 7.6, 7.07, 6.01, 5.03, 5.06, 4.02, 2.49, 2.66, 3.0, 5.03, 9.1, 12.6, 6.73, 2.41, 3.41, 4.81, 5.8, 4.75, 5.06, 5.4, 5.2, 6.67, 8.01, 10.51, 10.24, 3.63, -4.47, -5.51, -3.93, -2.23, 1.79, 3.16, 4.03, 5.76, 6.64, 7.32, 8.14, 6.44, 6.8, 6.7, 5.09, -0.0, -4.41, -5.31, -4.02, -3.13, -2.68, -1.79, -1.79, 1.34, 1.34, 4.47, 4.47, 4.47, 4.44, 4.88, 4.88, 4.8, 5.24, 5.09, 5.57, 5.57, 5.81, 6.3, 6.79, 7.26, 8.17, 8.67, 9.68, 10.67, 11.62, 12.07, 12.06, 12.47, 12.91, 13.3, 13.75, 14.11, 14.11, 14.13, 14.19, 12.95, 11.16, 11.57, 10.28, 9.76, 8.6, 9.03, 8.3, 9.63, 9.06, 10.16, 11.57, 10.66, 9.32, 7.94, 7.5, 7.94, 7.2, 5.37, 4.02, 5.01, 4.43, 4.11, 2.6, 3.76, 3.76, 5.6, 8.36, 11.71, 9.66, 4.07, 4.8, 5.69, 6.24, 6.24, 6.24, 6.24, 5.98, 6.3, 8.15, 9.67, 9.65, 3.39, -5.73, -5.81, -2.23, 0.88, 4.26, 6.42, 7.48, 8.31, 9.05, 9.2, 8.91, 8.67, 7.63, 7.42, 5.75, 1.26, -3.58, -5.36, -4.41, -3.13, -2.68, -2.24, -0.0, -0.0, -0.0, 4.47, 4.47, 4.47, 4.44, 4.88, 4.89, 4.8, 5.24, 5.09, 5.57, 5.99, 5.88, 6.3, 6.79, 7.26, 7.69, 8.33, 9.23, 10.22, 11.16, 11.62, 12.07, 12.5, 12.92, 13.3, 13.67, 14.11, 14.57, 14.65, 14.65, 14.7, 13.41, 11.16, 11.12, 9.39, 7.56, 8.14, 8.3, 10.04, 10.22, 10.28, 10.73, 10.73, 8.87, 8.41, 7.5, 6.64, 5.06, 4.02, 4.02, 4.43, 4.11, 5.01, 4.43, 5.01, 5.01, 6.58, 8.94, 10.18, 8.94, 6.04, 5.72, 6.95, 7.21, 7.44, 7.44, 6.11, 7.21, 7.21, 8.54, 9.24, 9.81, 5.51, -1.2, -0.98, 2.69, 6.45, 8.66, 9.48, 10.28, 10.29, 10.63, 10.43, 9.97, 8.8, 8.49, 8.05, 6.26, 2.68, -2.68, -4.02, -3.13, -2.21, -0.99, -0.0, -0.0, 0.76, 0.76, 4.47, 4.47, 4.92, 4.88, 4.88, 4.89, 4.8, 5.24, 5.7, 5.57, 5.99, 6.04, 6.47, 6.94, 6.94, 7.4, 7.87, 8.77, 9.32, 10.27, 11.18, 11.62, 12.07, 12.47, 12.85, 13.67, 14.2, 14.7, 14.7, 14.7, 14.74, 14.74, 12.52, 12.47, 8.46, 8.05, 8.01, 9.32, 9.76, 10.28, 10.73, 8.94, 9.83, 7.55, 7.97, 6.64, 5.06, 3.68, 4.29, 4.74, 5.36, 5.72, 5.93, 5.93, 7.2, 7.6, 8.6, 9.11, 9.2, 8.94, 7.59, 6.95, 7.81, 8.22, 8.22, 7.63, 7.6, 7.2, 7.6, 9.03, 10.73, 9.81, 8.8, 7.1, 6.64, 8.3, 10.43, 11.82, 11.87, 12.27, 11.88, 12.15, 11.37, 9.89, 9.24, 8.45, 8.05, 1.79, -2.4, -2.98, -3.2, -2.41, -1.66, -0.81, -0.0, -0.0, 0.73, 0.73, 4.92, 4.92, 4.92, 4.88, 4.89, 4.89, 5.24, 5.24, 5.7, 5.57, 5.99, 6.04, 6.47, 6.51, 6.94, 7.4, 7.87, 8.33, 8.86, 9.37, 10.73, 11.16, 11.18, 11.61, 11.95, 12.84, 12.95, 12.96, 13.41, 13.41, 13.41, 13.41, 12.96, 10.71, 7.97, 7.89, 7.89, 9.32, 9.76, 9.76, 9.39, 8.49, 8.05, 7.5, 7.21, 5.93, 5.03, 5.03, 5.93, 5.93, 5.93, 5.93, 6.28, 7.07, 7.6, 8.22, 8.63, 8.8, 8.37, 8.15, 8.15, 8.0, 8.63, 9.03, 9.11, 8.33, 8.0, 8.49, 8.49, 10.28, 12.45, 12.07, 12.94, 13.29, 13.43, 12.89, 12.89, 13.87, 14.39, 13.75, 13.11, 12.98, 12.37, 9.58, 8.77, 8.05, 6.2, 0.0, -3.58, -3.58, -2.68, -2.95, -2.53, -1.66, -0.0, -0.0, -0.0, -0.0, 4.92, 4.92, 4.92, 4.89, 4.89, 4.89, 5.24, 5.24, 5.7, 5.57, 5.99, 6.04, 6.47, 6.51, 6.51, 8.33, 7.4, 7.51, 7.58, 8.94, 10.27, 11.04, 10.13, 10.7, 11.18, 12.96, 9.37, 12.49, 13.39, 10.71, 10.71, 10.73, 10.73, 9.83, 7.58, 5.26, 4.9, 6.6, 9.54, 10.66, 9.39, 9.39, 8.87, 8.6, 7.44, 6.87, 6.87, 7.07, 6.7, 7.2, 6.7, 7.07, 7.07, 7.07, 7.76, 8.15, 8.15, 8.0, 8.73, 9.1, 9.2, 9.21, 9.11, 8.33, 8.77, 8.45, 8.49, 8.94, 9.8, 11.57, 12.96, 14.66, 16.69, 17.25, 16.76, 15.35, 14.64, 14.87, 14.87, 14.84, 13.65, 13.21, 12.27, 10.05, 9.24, 8.77, 8.45, 8.01, -1.9, -2.41, -2.95, -3.48, -3.16, -1.98, -0.99, -0.0, -0.0, -0.0, 4.92, 4.92, 4.92, 4.89, 4.89, 4.89, 5.24, 5.24, 5.7, 5.57, 5.99, 6.04, 6.47, 6.51, 6.94, 6.79, 6.94, 6.47, 7.85, 9.35, 10.93, 9.11, 8.22, 9.49, 10.85, 11.66, 11.84, 9.32, 9.82, 9.39, 9.39, 9.82, 9.77, 9.77, 8.47, 6.71, 5.26, 6.04, 7.07, 8.03, 8.94, 8.87, 8.67, 8.3, 7.61, 9.2, 8.15, 8.22, 7.81, 7.2, 7.2, 7.2, 7.6, 7.6, 7.03, 7.82, 8.72, 7.32, 8.06, 9.2, 9.21, 9.11, 9.11, 9.32, 8.45, 8.45, 8.94, 9.39, 10.28, 11.62, 13.41, 15.57, 18.17, 19.07, 18.7, 16.99, 16.07, 15.56, 15.18, 14.75, 14.3, 13.84, 12.94, 11.51, 10.14, 9.28, 9.28, 9.74, 5.86, 2.3, -0.0, -1.66, -2.23, -0.99, -0.0, -0.0, -0.0, -0.0, 4.92, 4.92, 4.92, 4.89, 4.89, 5.33, 5.24, 5.24, 5.7, 5.57, 5.99, 6.04, 6.47, 6.51, 6.94, 7.4, 7.4, 6.94, 6.79, 9.24, 10.68, 7.26, 6.36, 7.01, 8.3, 9.43, 10.22, 10.27, 10.28, 10.27, 10.67, 10.6, 11.04, 11.04, 10.6, 9.77, 8.49, 7.6, 8.05, 8.49, 9.37, 9.77, 9.57, 8.79, 8.0, 9.2, 8.63, 8.63, 8.6, 8.17, 7.63, 7.63, 7.2, 7.2, 7.07, 6.79, 7.41, 7.68, 8.72, 8.63, 9.11, 9.11, 9.32, 9.39, 8.49, 8.94, 8.94, 9.83, 10.73, 11.59, 12.94, 15.12, 17.72, 19.16, 18.33, 16.82, 14.53, 15.1, 14.17, 14.21, 14.11, 13.84, 13.41, 11.6, 10.7, 9.8, 9.35, 8.82, 8.67, 7.2, 4.29, 1.84, 0.96, 1.66, 2.2, 2.29, 1.63, 1.63, 4.92, 4.92, 4.92, 4.89, 5.33, 5.33, 5.24, 5.24, 5.7, 5.7, 5.99, 6.04, 6.47, 6.94, 6.94, 7.4, 7.26, 7.26, 8.0, 8.72, 9.43, 8.87, 8.03, 7.97, 8.42, 9.77, 10.27, 10.73, 11.16, 11.57, 11.57, 11.49, 11.49, 11.49, 11.49, 11.57, 11.12, 10.27, 9.83, 9.39, 9.39, 9.82, 9.24, 9.11, 8.22, 6.95, 9.21, 8.67, 8.85, 7.97, 7.21, 7.21, 7.21, 7.2, 6.28, 6.01, 6.32, 7.27, 8.72, 8.63, 8.14, 8.8, 8.9, 8.94, 8.94, 9.39, 9.39, 9.83, 10.28, 11.12, 11.84, 13.99, 16.46, 18.35, 11.96, 10.6, 10.94, 11.12, 11.75, 12.33, 13.11, 12.87, 12.94, 12.07, 10.7, 9.35, 8.45, 7.89, 7.47, 7.2, 5.3, 4.37, 4.46, 4.56, 4.56, 3.69, 3.27, 3.27, 4.92, 4.92, 4.92, 5.36, 5.33, 5.33, 5.24, 5.26, 5.7, 5.7, 5.99, 6.04, 6.47, 6.94, 6.94, 7.4, 7.26, 7.69, 8.0, 8.91, 9.57, 9.77, 9.82, 9.83, 9.83, 10.28, 10.73, 11.18, 11.62, 12.06, 12.06, 12.02, 12.02, 12.02, 12.02, 11.57, 11.57, 11.16, 10.71, 10.28, 9.82, 9.82, 9.32, 8.77, 7.51, 6.8, 8.79, 8.87, 8.49, 7.5, 7.06, 6.64, 6.13, 6.52, 5.93, 5.37, 5.24, 6.64, 8.37, 7.82, 7.63, 8.45, 8.94, 8.94, 8.94, 8.94, 9.39, 9.39, 9.83, 9.06, 10.0, 10.55, 18.11, 16.66, 10.96, 7.15, 7.11, 7.71, 8.24, 9.19, 10.53, 11.2, 11.18, 11.06, 9.83, 8.9, 8.14, 7.76, 6.79, 5.89, 5.21, 5.38, 5.59, 5.94, 5.21, 5.21, 4.37, 4.37, 4.92, 4.92, 4.92, 5.36, 5.33, 5.33, 5.34, 5.26, 5.7, 5.7, 5.99, 6.04, 6.47, 6.94, 6.79, 7.4, 7.69, 7.74, 8.17, 8.64, 9.11, 9.68, 9.77, 10.22, 10.71, 10.73, 11.18, 11.62, 11.62, 12.07, 12.07, 12.06, 12.06, 12.06, 11.61, 11.61, 11.57, 11.12, 11.16, 10.71, 10.27, 9.82, 8.87, 8.33, 7.26, 6.3, 9.32, 9.32, 8.41, 7.63, 7.21, 6.8, 6.13, 6.13, 5.72, 5.06, 4.43, 5.06, 7.21, 8.54, 7.63, 8.0, 8.01, 8.01, 8.01, 8.9, 8.9, 9.77, 8.56, 8.4, 8.43, 14.71, 17.72, 18.35, 16.54, 13.2, 11.76, 10.96, 10.28, 8.67, 9.34, 9.84, 10.0, 9.68, 9.8, 8.9, 7.76, 6.79, 6.73, 6.24, 5.76, 5.86, 6.32, 6.01, 5.64, 5.21, 4.6, 4.6, 4.92, 4.92, 5.36, 5.36, 5.36, 5.33, 5.34, 5.26, 5.7, 5.7, 5.99, 6.04, 6.47, 6.94, 6.79, 7.26, 7.84, 7.87, 8.17, 8.21, 8.77, 9.23, 9.23, 9.77, 10.22, 10.71, 11.16, 11.62, 11.62, 12.07, 12.07, 12.07, 12.07, 12.07, 11.61, 11.61, 11.61, 11.16, 11.11, 10.67, 10.22, 9.77, 9.32, 8.33, 7.4, 6.94, 7.58, 7.97, 7.87, 7.69, 7.26, 8.6, 7.21, 6.64, 5.75, 5.36, 5.01, 4.6, 6.23, 8.0, 9.04, 7.63, 7.85, 7.85, 8.33, 8.33, 8.63, 8.72, 8.06, 8.63, 10.45, 12.52, 16.5, 17.44, 18.39, 17.64, 17.39, 16.27, 14.6, 11.18, 10.05, 9.6, 9.34, 8.91, 8.94, 7.85, 6.82, 6.11, 6.01, 5.94, 6.95, 6.64, 6.68, 6.73, 6.01, 5.94, 5.13, 5.13, 4.92, 4.92, 5.36, 5.36, 5.36, 5.34, 5.34, 5.7, 5.7, 5.7, 6.04, 6.04, 6.47, 6.94, 6.79, 7.26, 7.84, 7.87, 7.87, 8.33, 8.77, 8.79, 9.23, 9.23, 9.77, 10.22, 10.71, 11.16, 11.62, 11.62, 12.07, 12.07, 12.07, 11.62, 11.62, 11.62, 11.18, 11.16, 11.16, 10.67, 10.22, 9.77, 9.23, 8.77, 8.3, 7.87, 7.87, 7.87, 8.3, 8.33, 8.3, 7.51, 8.85, 7.5, 6.64, 6.64, 5.6, 6.07, 6.14, 6.64, 8.63, 9.21, 8.14, 7.85, 7.85, 7.71, 7.42, 7.41, 8.03, 9.36, 9.97, 12.52, 13.39, 16.36, 16.76, 17.13, 17.16, 17.35, 15.57, 12.07, 10.45, 9.08, 7.98, 6.66, 6.07, 5.82, 5.49, 4.95, 5.24, 5.64, 6.64, 7.31, 7.33, 6.68, 6.32, 6.24, 5.86, 5.86, 5.36, 5.36, 5.36, 5.36, 5.36, 5.34, 5.34, 5.78, 5.7, 5.7, 6.04, 6.04, 6.47, 6.94, 6.94, 7.26, 7.4, 7.87, 7.87, 8.3, 8.33, 8.77, 8.79, 9.23, 9.23, 9.77, 10.22, 10.71, 11.16, 11.62, 11.62, 11.62, 11.62, 11.62, 11.62, 11.18, 11.18, 10.73, 10.27, 10.27, 10.22, 9.77, 9.24, 8.79, 8.64, 8.33, 8.33, 8.33, 8.42, 8.42, 8.47, 8.03, 7.6, 6.68, 7.11, 6.51, 7.01, 6.14, 5.51, 6.02, 8.17, 9.06, 10.04, 8.01, 8.41, 6.8, 6.73, 7.35, 8.43, 9.33, 10.6, 11.18, 12.52, 13.83, 14.55, 15.13, 16.69, 16.03, 13.86, 10.14, 7.35, 4.84, 3.58, 3.2, 3.16, 3.79, 4.29, 4.95, 5.69, 6.01, 6.32, 7.31, 7.68, 7.35, 7.31, 7.31, 7.31, 7.31, 5.36, 5.36, 5.36, 5.36, 5.36, 5.34, 5.78, 5.78, 5.7, 6.16, 6.04, 6.47, 6.47, 6.94, 6.94, 7.4, 7.4, 7.87, 7.87, 8.3, 8.33, 8.77, 8.77, 8.79, 9.23, 9.32, 9.77, 9.77, 10.22, 10.71, 11.16, 11.16, 11.61, 11.62, 11.18, 11.18, 10.73, 10.28, 10.28, 10.27, 9.82, 9.77, 9.23, 8.67, 9.11, 9.11, 9.23, 8.87, 8.92, 8.94, 8.49, 8.49, 8.05, 7.15, 6.71, 7.15, 7.15, 6.71, 5.29, 5.59, 7.1, 8.9, 9.83, 8.9, 7.12, 6.87, 6.53, 7.41, 8.72, 9.7, 10.7, 11.62, 12.04, 12.49, 12.94, 14.28, 16.01, 15.63, 12.41, 7.71, 3.48, 0.6, 0.6, 2.41, 3.84, 4.81, 5.06, 5.69, 6.39, 6.73, 7.35, 8.38, 8.38, 7.96, 7.96, 7.96, 7.95, 7.95, 5.36, 5.36, 5.36, 5.36, 5.36, 5.81, 5.78, 5.78, 5.7, 5.7, 6.04, 6.47, 6.47, 6.51, 6.94, 6.94, 7.4, 7.84, 7.87, 7.87, 8.3, 8.33, 8.77, 8.77, 8.79, 8.87, 9.32, 9.32, 9.77, 10.22, 10.71, 11.16, 11.16, 11.16, 11.16, 10.73, 10.28, 10.28, 9.83, 9.82, 9.82, 9.37, 8.86, 9.35, 9.06, 8.48, 9.68, 9.39, 8.42, 8.94, 8.49, 8.47, 8.03, 7.58, 6.61, 6.16, 7.5, 6.71, 5.73, 5.75, 6.71, 8.94, 9.39, 8.0, 6.82, 5.76, 6.83, 8.06, 8.3, 9.36, 10.73, 12.07, 12.42, 12.74, 13.49, 14.58, 15.1, 14.87, 12.86, 9.8, 6.65, 3.58, 4.11, 5.6, 7.2, 7.28, 7.85, 8.43, 8.67, 9.05, 9.04, 9.3, 10.09, 8.94, 8.58, 8.93, 8.18, 8.18, 5.36, 5.36, 5.36, 5.36, 5.81, 5.81, 5.78, 5.78, 5.7, 6.16, 6.16, 6.04, 6.47, 6.51, 6.94, 6.94, 7.4, 7.4, 7.87, 7.87, 8.3, 8.33, 8.33, 8.33, 8.77, 8.86, 8.87, 9.32, 9.32, 9.77, 10.22, 10.67, 10.67, 10.71, 10.71, 10.27, 10.28, 9.83, 9.83, 9.39, 9.39, 9.37, 8.92, 7.6, 6.23, 9.35, 11.62, 8.92, 6.61, 5.26, 5.34, 5.78, 7.07, 6.61, 6.6, 6.04, 5.7, 5.34, 6.26, 5.81, 7.15, 8.9, 8.49, 7.12, 6.01, 5.24, 6.01, 8.0, 8.3, 9.39, 10.25, 11.6, 12.94, 13.76, 14.42, 14.83, 14.83, 14.64, 14.22, 13.86, 12.96, 10.71, 10.67, 10.94, 11.08, 11.72, 11.06, 10.94, 10.94, 10.65, 10.65, 11.2, 11.34, 10.28, 9.7, 9.45, 9.34, 9.34, 5.36, 5.36, 5.36, 5.36, 5.81, 5.81, 5.78, 5.79, 6.16, 6.16, 6.16, 6.16, 6.47, 6.51, 6.94, 6.94, 7.4, 7.4, 7.84, 7.87, 7.87, 7.87, 8.3, 8.33, 8.33, 8.86, 8.86, 8.87, 9.32, 9.77, 10.22, 10.66, 10.66, 10.66, 10.27, 10.27, 9.82, 9.83, 9.39, 9.39, 9.39, 9.39, 8.94, 7.6, 6.71, 8.8, 11.06, 8.92, 6.26, 5.36, 5.36, 5.81, 5.81, 5.7, 5.26, 5.24, 5.09, 4.8, 4.88, 6.26, 7.11, 8.45, 8.01, 6.82, 6.18, 5.82, 5.6, 7.06, 9.03, 9.83, 8.94, 9.83, 12.07, 14.75, 16.01, 15.35, 14.58, 13.49, 14.11, 15.63, 16.09, 16.09, 14.26, 14.11, 14.0, 13.88, 13.69, 13.42, 12.4, 11.99, 11.88, 12.22, 12.22, 12.01, 10.79, 10.27, 9.68, 9.68, 5.36, 5.36, 5.36, 5.81, 5.81, 5.81, 5.79, 6.23, 6.23, 6.16, 6.16, 6.16, 6.04, 6.51, 6.94, 6.94, 6.97, 7.4, 7.4, 7.4, 7.87, 7.87, 8.3, 8.33, 8.33, 8.33, 8.42, 8.42, 10.25, 9.32, 9.68, 9.68, 9.68, 9.77, 9.77, 9.82, 9.37, 9.37, 9.39, 8.94, 9.39, 9.39, 9.39, 8.49, 8.03, 8.33, 9.68, 9.82, 8.49, 7.58, 7.58, 7.58, 7.15, 6.71, 5.81, 4.44, 4.34, 4.3, 3.87, 4.34, 6.65, 7.6, 7.63, 6.94, 7.12, 6.51, 6.26, 7.15, 8.49, 9.83, 9.39, 9.35, 11.12, 14.71, 17.43, 17.27, 13.49, 11.87, 12.58, 14.15, 16.08, 16.09, 15.58, 14.19, 14.11, 14.0, 13.88, 13.26, 13.49, 12.22, 12.01, 12.01, 12.18, 12.33, 11.71, 10.8, 10.32, 10.32, 5.36, 5.36, 5.36, 5.81, 5.81, 5.81, 5.79, 6.23, 6.23, 6.16, 6.16, 6.16, 6.16, 6.47, 6.94, 6.94, 6.94, 6.94, 7.4, 7.4, 7.4, 7.87, 7.87, 8.3, 8.33, 8.33, 8.33, 8.33, 8.33, 10.45, 8.79, 8.87, 8.87, 8.87, 8.92, 8.92, 8.92, 8.92, 8.92, 8.92, 8.94, 8.94, 9.39, 8.94, 8.92, 8.87, 9.32, 9.37, 9.39, 9.39, 8.94, 8.94, 8.49, 8.05, 7.15, 6.26, 5.36, 3.98, 3.98, 3.98, 4.92, 6.65, 7.94, 6.94, 7.1, 7.1, 6.71, 7.1, 8.49, 9.39, 9.35, 9.7, 10.25, 13.86, 19.22, 19.67, 14.67, 11.51, 11.53, 12.94, 14.75, 15.63, 15.58, 15.58, 14.19, 14.11, 14.0, 13.41, 13.92, 12.58, 12.27, 11.89, 11.99, 11.99, 11.53, 11.51, 10.18, 10.18, 5.36, 5.36, 5.81, 5.81, 5.81, 5.81, 6.23, 6.23, 6.23, 6.16, 6.16, 6.16, 6.16, 6.47, 6.51, 6.94, 6.94, 6.94, 6.97, 7.4, 7.4, 7.87, 7.87, 7.87, 8.33, 8.33, 8.33, 8.33, 8.64, 9.23, 8.87, 8.87, 8.47, 8.92, 8.92, 8.92, 8.92, 8.47, 8.47, 8.47, 8.47, 8.49, 8.94, 8.94, 8.94, 8.92, 8.87, 9.32, 9.32, 9.32, 9.32, 9.37, 8.92, 8.47, 8.03, 7.13, 6.23, 5.78, 4.44, 4.44, 6.71, 6.71, 6.71, 7.15, 6.71, 6.71, 6.71, 7.15, 8.05, 8.94, 8.9, 10.66, 11.18, 13.39, 17.86, 20.1, 17.36, 13.84, 12.96, 13.86, 14.75, 15.65, 16.09, 16.08, 15.18, 13.81, 13.75, 13.3, 13.33, 12.43, 12.05, 12.04, 11.6, 11.62, 11.62, 11.15, 10.7, 10.7, 5.36, 5.36, 5.81, 5.81, 5.81, 6.26, 6.23, 6.23, 6.23, 6.16, 6.16, 6.16, 6.6, 6.47, 6.51, 6.51, 6.51, 6.94, 6.94, 6.97, 7.4, 7.4, 7.87, 7.87, 8.3, 8.33, 8.33, 8.33, 8.77, 8.79, 8.87, 8.87, 8.92, 8.92, 8.92, 8.92, 8.92, 8.47, 8.47, 8.03, 8.03, 8.05, 8.49, 8.49, 8.94, 8.92, 8.92, 8.87, 8.79, 9.23, 9.23, 8.79, 8.86, 8.42, 7.97, 7.51, 7.06, 6.16, 5.7, 4.89, 4.47, 6.26, 6.26, 7.15, 7.15, 7.15, 6.26, 7.15, 7.6, 8.49, 8.46, 10.22, 12.07, 13.39, 15.63, 17.42, 18.03, 16.69, 16.01, 15.65, 15.18, 15.58, 15.63, 15.2, 14.75, 13.41, 12.95, 13.39, 12.52, 12.07, 11.62, 11.18, 11.18, 11.18, 11.18, 11.18, 11.18, 11.18, 5.36, 5.36, 5.81, 5.81, 5.81, 6.26, 6.23, 6.23, 6.23, 6.23, 6.16, 6.16, 6.6, 6.47, 6.47, 6.47, 6.51, 6.51, 6.94, 6.94, 7.4, 7.4, 7.87, 7.87, 7.87, 8.3, 8.33, 8.33, 8.33, 8.77, 8.86, 8.87, 8.87, 8.87, 8.87, 8.92, 8.92, 8.47, 8.47, 8.03, 8.03, 8.05, 8.05, 8.49, 8.94, 8.92, 8.92, 8.87, 8.77, 8.79, 9.11, 8.64, 8.64, 8.33, 8.3, 7.87, 7.07, 6.61, 6.16, 5.24, 4.8, 4.47, 6.71, 6.26, 6.71, 7.6, 6.65, 7.55, 8.05, 8.05, 9.39, 9.39, 12.47, 13.41, 14.3, 15.2, 16.01, 17.27, 17.81, 17.43, 16.48, 15.05, 14.23, 13.78, 12.95, 12.52, 12.52, 11.62, 11.62, 11.18, 11.18, 11.18, 11.18, 11.18, 10.73, 11.18, 11.18, 11.18, 5.81, 5.81, 5.81, 5.81, 5.81, 6.26, 6.23, 6.23, 6.23, 6.23, 6.16, 6.16, 6.6, 6.47, 6.47, 6.47, 6.47, 6.51, 6.51, 6.94, 6.97, 7.4, 7.4, 7.87, 7.87, 7.87, 8.3, 8.3, 8.33, 8.33, 8.42, 8.86, 8.86, 8.87, 8.87, 8.87, 8.87, 8.92, 8.47, 8.47, 8.03, 7.58, 7.6, 8.94, 8.05, 8.94, 9.32, 8.79, 8.64, 8.64, 8.64, 8.64, 8.64, 8.17, 8.17, 7.87, 7.4, 6.94, 5.99, 5.7, 5.24, 4.77, 6.71, 6.26, 6.71, 7.6, 6.71, 7.6, 8.05, 8.05, 8.49, 8.94, 11.57, 14.26, 14.3, 14.28, 14.73, 16.52, 18.31, 18.27, 16.97, 14.74, 13.39, 12.94, 12.52, 12.07, 12.07, 11.18, 11.18, 11.18, 11.18, 11.18, 11.18, 11.18, 11.18, 10.73, 10.73, 11.18, 5.81, 5.81, 5.81, 5.81, 6.26, 6.26, 6.23, 6.23, 6.23, 6.23, 6.16, 6.6, 6.6, 6.47, 6.47, 6.47, 6.47, 6.47, 6.51, 6.94, 6.94, 7.4, 7.4, 7.84, 7.87, 7.87, 7.87, 7.87, 8.3, 8.33, 8.33, 8.33, 8.42, 8.86, 8.86, 8.86, 8.86, 8.42, 8.42, 8.42, 7.97, 7.58, 6.68, 8.05, 8.05, 9.39, 9.77, 9.11, 8.48, 8.0, 8.0, 8.0, 8.0, 8.0, 8.17, 7.74, 7.26, 6.94, 6.04, 5.57, 5.09, 4.77, 6.71, 5.81, 6.26, 7.6, 7.6, 7.15, 7.6, 7.6, 7.6, 8.94, 10.73, 13.39, 15.63, 14.75, 14.22, 15.34, 16.76, 17.3, 16.09, 15.2, 14.3, 13.41, 12.96, 12.52, 12.07, 11.62, 11.62, 11.62, 11.62, 11.62, 11.62, 11.62, 11.18, 10.73, 10.7, 10.73, 5.81, 5.81, 5.81, 5.81, 5.81, 6.26, 6.23, 6.23, 6.23, 6.23, 6.16, 6.6, 6.6, 6.6, 6.47, 6.04, 6.04, 6.16, 6.6, 6.51, 6.94, 6.97, 7.4, 7.4, 7.87, 7.87, 7.87, 7.87, 7.87, 8.3, 8.33, 8.33, 8.33, 8.33, 8.33, 8.33, 8.33, 8.42, 8.42, 8.41, 7.97, 7.51, 6.61, 5.7, 8.45, 9.32, 9.68, 8.48, 7.51, 7.01, 7.09, 7.51, 7.51, 7.58, 7.58, 7.74, 7.69, 6.79, 6.3, 5.88, 5.57, 5.09, 4.88, 6.71, 7.15, 7.5, 6.65, 7.1, 7.6, 7.6, 8.05, 8.05, 10.28, 12.52, 14.58, 14.57, 14.75, 15.01, 15.31, 14.59, 14.68, 14.74, 14.75, 14.3, 13.39, 12.94, 12.5, 12.05, 12.05, 11.6, 11.62, 11.62, 11.62, 11.62, 11.18, 10.73, 10.28, 10.7, 5.81, 5.81, 5.81, 5.81, 5.81, 6.26, 6.23, 6.23, 6.23, 6.23, 6.6, 6.6, 6.6, 6.6, 6.16, 6.16, 6.16, 6.16, 6.6, 6.61, 6.94, 6.94, 7.4, 7.4, 7.4, 7.87, 7.87, 7.87, 7.87, 7.87, 8.3, 8.33, 8.33, 8.33, 8.33, 8.33, 8.33, 8.3, 8.3, 7.87, 7.87, 7.4, 6.94, 6.04, 7.01, 10.25, 9.11, 7.26, 5.88, 5.81, 5.88, 6.3, 6.79, 7.01, 7.51, 7.51, 7.51, 7.26, 7.01, 6.72, 5.81, 5.31, 7.01, 6.58, 6.58, 7.15, 7.1, 7.94, 7.15, 7.6, 8.05, 8.49, 9.83, 10.73, 12.01, 14.81, 16.36, 16.09, 13.21, 11.84, 11.42, 12.43, 13.33, 12.88, 12.88, 12.43, 11.98, 11.98, 11.52, 11.52, 11.52, 11.52, 11.6, 11.59, 11.18, 10.73, 10.28, 10.28, 5.81, 5.81, 5.81, 5.81, 5.81, 6.26, 6.23, 6.23, 6.23, 6.16, 6.6, 6.6, 6.6, 6.16, 6.16, 6.16, 6.16, 6.16, 6.16, 6.6, 6.61, 6.94, 6.97, 7.4, 7.4, 7.4, 7.87, 7.87, 7.87, 7.87, 8.3, 8.3, 8.33, 8.33, 8.33, 8.33, 8.3, 7.87, 7.87, 7.87, 7.87, 7.4, 7.4, 6.79, 7.31, 8.51, 9.11, 7.97, 6.16, 5.7, 5.7, 5.7, 5.57, 6.04, 6.36, 7.21, 7.51, 7.51, 7.51, 7.01, 6.51, 6.0, 5.51, 7.01, 6.71, 7.15, 7.15, 7.6, 6.71, 7.6, 8.05, 8.49, 9.76, 9.35, 11.11, 12.96, 16.01, 17.72, 14.73, 11.18, 10.26, 11.15, 11.6, 12.05, 12.05, 12.04, 11.6, 11.6, 11.52, 11.52, 11.52, 11.52, 11.52, 11.6, 11.15, 10.73, 10.73, 10.73, 5.81, 5.81, 5.81, 5.81, 5.81, 6.26, 6.23, 6.23, 6.23, 6.16, 6.6, 6.6, 6.6, 6.16, 6.16, 6.16, 6.16, 6.16, 6.16, 6.6, 6.61, 6.94, 6.94, 7.4, 7.4, 7.4, 7.84, 7.87, 7.87, 7.87, 7.87, 8.3, 8.3, 8.17, 8.17, 8.3, 7.87, 7.87, 7.87, 7.84, 7.4, 7.4, 7.4, 7.26, 7.58, 8.48, 8.64, 8.41, 7.58, 6.68, 6.23, 5.79, 5.78, 5.7, 5.7, 6.04, 7.21, 7.51, 7.31, 7.31, 6.8, 6.51, 5.6, 7.21, 6.71, 6.71, 7.15, 7.15, 6.65, 7.1, 7.6, 8.01, 8.8, 9.54, 10.45, 11.36, 13.86, 17.15, 16.96, 14.4, 12.42, 12.05, 12.5, 12.52, 12.52, 12.52, 12.07, 12.07, 12.05, 11.6, 11.6, 11.52, 11.52, 11.52, 11.15, 10.7, 10.7, 10.7, 5.81, 5.81, 5.81, 5.81, 5.81, 6.26, 6.23, 6.23, 6.23, 6.16, 6.16, 6.6, 6.16, 6.16, 6.16, 6.16, 6.16, 6.16, 6.16, 6.6, 6.6, 6.51, 6.94, 6.97, 7.4, 7.4, 7.4, 7.87, 7.87, 7.74, 7.74, 8.17, 8.17, 8.17, 8.17, 7.74, 7.74, 7.87, 7.4, 7.4, 7.4, 7.4, 7.4, 7.69, 7.74, 8.17, 8.3, 7.87, 7.97, 7.51, 7.13, 6.68, 6.26, 5.81, 5.78, 6.16, 6.47, 6.79, 7.09, 7.31, 7.2, 6.8, 6.51, 5.81, 7.5, 6.71, 7.01, 6.2, 6.51, 6.65, 8.05, 7.42, 8.14, 9.54, 10.02, 10.6, 12.07, 14.66, 16.53, 16.27, 15.1, 14.56, 14.59, 14.29, 13.41, 13.41, 12.96, 12.96, 12.5, 12.05, 12.47, 11.08, 11.52, 11.51, 11.06, 10.62, 10.62, 10.62, 5.81, 5.81, 5.81, 5.81, 5.81, 6.26, 6.23, 6.23, 6.23, 6.16, 6.16, 6.16, 6.16, 6.16, 6.16, 6.14, 6.14, 6.16, 6.16, 6.16, 6.47, 6.51, 6.94, 6.94, 7.4, 7.4, 7.4, 7.84, 7.74, 7.74, 7.74, 7.74, 8.17, 8.17, 7.74, 7.74, 7.74, 7.69, 7.4, 7.4, 7.4, 7.4, 7.4, 7.69, 7.74, 7.74, 7.74, 7.87, 7.4, 7.51, 7.07, 7.13, 6.68, 6.68, 6.26, 6.23, 6.16, 6.47, 6.79, 7.01, 6.8, 6.8, 6.51, 6.3, 5.7, 7.6, 7.15, 6.26, 6.71, 7.15, 7.42, 7.85, 8.33, 8.8, 9.7, 10.25, 11.18, 12.96, 14.11, 14.64, 15.24, 16.96, 16.96, 15.05, 13.84, 13.41, 13.39, 13.34, 12.86, 12.79, 11.44, 10.45, 10.93, 10.93, 10.93, 10.45, 10.45, 10.45, 5.81, 5.81, 5.81, 5.81, 5.81, 6.26, 6.23, 6.23, 6.23, 6.16, 6.16, 6.16, 6.16, 6.16, 6.14, 6.14, 6.14, 6.14, 6.16, 6.16, 6.47, 6.51, 6.94, 6.94, 7.4, 7.4, 7.26, 7.69, 7.69, 7.74, 7.74, 7.74, 7.74, 7.74, 7.74, 7.69, 7.69, 7.26, 7.4, 7.4, 7.4, 7.4, 7.4, 7.69, 7.69, 7.74, 7.84, 7.4, 7.4, 7.07, 7.06, 6.61, 6.68, 6.68, 6.68, 6.68, 6.68, 6.61, 6.6, 6.47, 6.72, 6.51, 6.1, 5.81, 5.24, 7.15, 7.15, 7.06, 7.5, 6.94, 7.42, 7.42, 7.85, 8.77, 9.35, 9.83, 10.73, 12.07, 12.42, 12.58, 13.72, 16.76, 18.11, 16.44, 15.05, 13.86, 13.39, 13.23, 12.58, 11.66, 11.18, 10.93, 10.93, 10.49, 10.49, 10.02, 10.02, 10.02, 5.81, 5.81, 5.81, 5.81, 5.81, 6.26, 6.23, 6.23, 6.23, 6.23, 6.16, 6.16, 6.14, 5.7, 5.7, 5.7, 5.7, 6.14, 6.16, 6.16, 6.04, 6.47, 6.51, 6.94, 6.94, 7.4, 7.26, 7.69, 7.69, 7.69, 7.69, 7.69, 7.69, 7.69, 7.69, 7.69, 7.26, 7.26, 7.37, 6.94, 6.94, 7.4, 7.26, 7.26, 7.69, 7.69, 7.4, 7.4, 6.94, 6.94, 6.61, 6.6, 6.61, 6.61, 7.13, 7.13, 7.13, 7.06, 6.61, 6.6, 6.47, 6.3, 5.81, 4.9, 4.6, 6.58, 7.01, 7.06, 7.5, 6.94, 7.55, 7.55, 8.01, 8.45, 8.9, 9.36, 10.28, 10.73, 11.06, 11.36, 12.74, 14.87, 16.76, 16.89, 16.87, 15.58, 13.86, 12.66, 11.47, 11.06, 11.09, 10.95, 10.68, 10.25, 10.25, 9.83, 9.83, 9.83, 5.81, 5.81, 5.81, 5.81, 5.81, 6.26, 6.23, 6.23, 6.23, 6.23, 6.16, 5.7, 5.7, 5.7, 5.7, 5.7, 6.14, 6.14, 6.16, 6.04, 6.04, 6.47, 6.51, 6.94, 6.94, 7.26, 7.26, 7.26, 7.69, 7.69, 7.69, 7.69, 7.69, 7.26, 7.26, 7.26, 7.26, 7.26, 6.79, 6.94, 6.94, 6.79, 7.26, 7.26, 7.69, 7.26, 7.4, 6.94, 6.94, 6.51, 6.6, 6.16, 6.16, 6.6, 7.06, 7.06, 7.06, 7.06, 7.06, 6.61, 6.47, 5.81, 5.31, 4.8, 3.88, 5.2, 6.02, 6.65, 6.65, 7.42, 7.85, 8.33, 7.89, 8.33, 8.9, 8.9, 9.39, 9.83, 10.25, 11.06, 11.96, 12.74, 14.21, 16.03, 17.17, 16.74, 12.44, 11.03, 10.09, 10.15, 10.09, 10.23, 10.15, 10.01, 9.6, 9.33, 9.33, 9.33, 5.81, 5.81, 5.81, 5.81, 5.81, 6.26, 6.23, 6.23, 6.23, 5.79, 5.7, 5.7, 5.7, 5.7, 5.7, 5.7, 6.14, 6.14, 6.04, 6.04, 6.04, 6.47, 6.47, 6.94, 6.94, 6.79, 7.26, 7.26, 7.26, 7.26, 7.26, 7.26, 7.26, 7.26, 7.26, 7.26, 7.26, 7.21, 6.79, 6.79, 6.79, 6.79, 7.26, 7.26, 7.26, 7.26, 7.4, 6.94, 6.94, 6.51, 6.6, 6.16, 6.16, 6.51, 6.94, 6.94, 6.97, 6.97, 6.94, 6.94, 6.47, 6.04, 5.31, 4.8, 4.27, 5.2, 5.2, 6.02, 6.45, 6.94, 7.63, 8.06, 8.14, 8.33, 8.33, 8.45, 8.94, 8.94, 9.39, 10.25, 11.15, 11.51, 12.27, 14.4, 16.69, 15.63, 12.96, 10.05, 7.92, 7.96, 8.59, 8.59, 9.52, 9.6, 8.95, 8.82, 8.82, 8.82, 5.81, 5.81, 5.81, 5.81, 5.81, 6.26, 6.23, 6.23, 5.79, 5.78, 5.7, 5.7, 5.7, 5.7, 5.7, 5.7, 6.14, 5.99, 6.04, 6.04, 6.04, 6.04, 6.47, 6.51, 6.79, 6.79, 7.21, 7.26, 7.26, 7.26, 7.26, 7.26, 7.26, 7.26, 7.26, 7.26, 7.26, 6.79, 6.79, 6.79, 6.79, 6.79, 7.21, 7.26, 7.26, 7.26, 6.94, 6.94, 6.47, 6.47, 6.6, 6.04, 6.04, 6.51, 6.94, 7.4, 7.4, 7.4, 7.4, 6.94, 6.94, 6.3, 5.81, 4.55, 4.0, 4.0, 5.6, 5.2, 5.75, 6.16, 6.7, 6.8, 7.76, 7.42, 8.14, 8.33, 8.45, 8.49, 9.39, 9.83, 10.73, 10.73, 11.18, 13.41, 16.99, 16.54, 14.3, 11.09, 8.19, 6.7, 6.64, 6.51, 7.97, 8.03, 8.05, 7.42, 7.42, 7.42, 5.81, 5.81, 5.81, 5.81, 5.81, 6.23, 5.79, 5.79, 5.78, 5.78, 5.7, 5.7, 5.7, 5.7, 5.7, 5.7, 5.99, 5.99, 6.04, 6.04, 6.04, 6.04, 6.47, 6.47, 6.79, 6.79, 6.79, 7.21, 7.21, 7.26, 7.26, 7.21, 7.21, 7.21, 7.21, 7.21, 7.21, 6.79, 6.79, 6.79, 6.79, 6.79, 6.79, 7.21, 7.21, 6.79, 6.94, 6.51, 6.47, 6.47, 6.47, 6.47, 6.47, 6.79, 6.79, 7.26, 7.26, 7.26, 7.26, 7.21, 6.79, 6.3, 5.6, 5.08, 4.55, 4.07, 5.58, 5.58, 5.75, 5.75, 6.16, 6.8, 6.82, 6.44, 7.76, 7.63, 7.89, 8.45, 8.9, 9.8, 10.25, 10.28, 11.18, 16.52, 17.37, 16.93, 15.14, 12.88, 10.18, 7.76, 6.64, 5.21, 5.76, 6.24, 6.73, 6.44, 6.44, 6.44, 5.81, 5.81, 5.81, 5.81, 5.81, 5.79, 5.79, 5.78, 5.78, 5.78, 5.7, 5.7, 5.7, 5.7, 5.7, 5.99, 5.99, 5.99, 5.99, 5.99, 6.04, 6.04, 6.47, 6.47, 6.3, 6.79, 6.79, 6.79, 6.79, 7.21, 7.21, 6.79, 6.79, 6.79, 7.21, 7.21, 7.21, 6.79, 6.79, 6.79, 6.79, 6.79, 6.79, 6.79, 6.79, 6.79, 6.51, 6.47, 6.47, 6.47, 6.47, 6.47, 6.3, 6.72, 6.79, 7.21, 7.26, 7.69, 7.26, 7.21, 6.79, 6.51, 6.0, 5.47, 4.65, 4.65, 5.21, 5.47, 6.45, 6.45, 6.7, 6.8, 6.8, 6.21, 5.82, 6.82, 7.35, 8.14, 9.06, 9.24, 9.26, 9.8, 13.39, 16.07, 16.97, 16.93, 15.5, 13.25, 11.53, 10.18, 8.67, 6.32, 4.83, 4.71, 4.83, 5.37, 5.37, 5.37, 5.81, 5.81, 5.81, 5.81, 5.81, 5.79, 5.79, 5.78, 5.78, 5.7, 5.7, 5.7, 5.7, 5.7, 5.7, 5.99, 5.99, 5.99, 5.99, 5.99, 5.99, 6.04, 6.04, 6.3, 6.3, 6.79, 6.79, 6.79, 6.79, 6.79, 6.79, 6.79, 6.79, 6.79, 6.79, 7.21, 7.21, 6.79, 6.79, 6.79, 6.79, 6.79, 6.79, 6.79, 6.79, 6.79, 6.47, 6.47, 6.47, 6.47, 6.47, 6.47, 6.3, 6.72, 6.6, 7.01, 7.09, 7.51, 7.51, 7.09, 7.01, 6.51, 5.89, 5.75, 5.21, 4.71, 4.94, 5.47, 6.16, 6.94, 7.42, 7.42, 7.42, 6.94, 6.7, 6.8, 6.79, 7.82, 8.72, 8.82, 8.63, 9.06, 12.49, 15.2, 16.99, 16.07, 14.11, 12.09, 10.8, 10.37, 10.32, 8.48, 5.77, 4.03, 3.2, 3.64, 3.64, 3.64, 5.81, 5.81, 5.81, 5.81, 6.23, 5.79, 5.78, 5.78, 5.78, 5.7, 5.7, 5.7, 5.7, 5.7, 5.57, 5.99, 5.99, 5.99, 5.99, 5.99, 5.99, 5.99, 6.04, 6.3, 6.3, 6.3, 6.79, 6.79, 6.79, 6.79, 6.79, 6.79, 6.79, 6.79, 6.79, 6.79, 6.79, 6.79, 6.79, 6.79, 6.72, 6.72, 6.72, 6.72, 6.3, 6.3, 6.47, 6.47, 6.47, 6.47, 6.3, 6.3, 6.3, 6.51, 6.6, 7.01, 7.09, 7.51, 7.51, 7.51, 6.8, 6.8, 6.28, 5.75, 5.58, 4.94, 4.71, 5.21, 5.47, 6.7, 6.94, 6.98, 7.55, 7.55, 7.55, 7.85, 7.76, 7.44, 8.4, 8.4, 8.3, 9.54, 11.06, 13.86, 16.54, 15.65, 12.44, 9.89, 8.8, 8.88, 9.34, 8.67, 6.0, 3.63, 1.84, 2.4, 2.4, 2.4, 5.81, 5.81, 5.81, 6.26, 6.23, 5.79, 5.78, 5.78, 5.7, 5.7, 5.7, 5.7, 5.7, 5.57, 5.57, 5.99, 5.99, 5.99, 5.99, 5.99, 5.99, 5.99, 5.81, 6.3, 6.3, 6.3, 6.3, 6.72, 6.79, 6.79, 6.79, 6.79, 6.79, 6.79, 6.79, 6.79, 6.79, 6.79, 6.79, 6.72, 6.3, 6.3, 6.3, 6.3, 6.3, 6.3, 6.3, 6.3, 6.3, 6.3, 6.3, 6.3, 6.1, 6.51, 6.51, 6.8, 7.31, 7.31, 7.71, 7.31, 7.31, 6.8, 6.41, 6.03, 5.49, 5.29, 4.94, 4.94, 5.21, 6.21, 6.7, 6.7, 6.7, 6.94, 7.37, 7.63, 7.76, 7.82, 8.4, 8.4, 8.72, 9.24, 10.02, 12.42, 15.2, 15.65, 12.52, 8.82, 6.64, 6.01, 6.7, 6.64, 4.8, 2.84, 0.98, 0.98, 0.98, 0.98, 5.81, 5.81, 6.26, 6.26, 6.23, 5.78, 5.78, 5.7, 5.7, 5.7, 5.7, 5.7, 5.7, 5.57, 5.57, 5.99, 5.99, 5.99, 5.99, 5.99, 5.99, 5.81, 5.81, 5.88, 6.3, 6.3, 6.3, 6.3, 6.3, 6.72, 6.79, 6.79, 6.79, 6.79, 6.79, 6.79, 6.79, 6.79, 6.72, 6.3, 6.3, 6.3, 6.3, 6.3, 6.3, 6.3, 6.3, 6.3, 6.3, 6.3, 6.3, 6.3, 6.1, 6.51, 6.28, 6.8, 7.2, 7.31, 7.71, 7.48, 7.48, 6.95, 6.95, 6.41, 5.86, 5.49, 5.29, 5.29, 5.29, 6.18, 6.18, 6.21, 6.16, 6.16, 6.4, 7.35, 7.42, 7.82, 8.4, 8.4, 8.72, 9.24, 10.18, 11.8, 14.22, 15.18, 12.96, 8.91, 6.07, 3.79, 2.98, 3.84, 3.74, 2.98, 2.21, 1.2, 1.2, 1.2, 5.81, 5.81, 6.26, 6.23, 5.79, 5.78, 5.78, 5.7, 5.7, 5.7, 5.7, 5.7, 5.57, 5.57, 5.57, 5.99, 5.99, 5.99, 5.99, 5.99, 5.81, 5.81, 5.81, 5.81, 5.88, 6.3, 6.3, 6.3, 6.3, 6.3, 6.3, 6.72, 6.79, 6.79, 6.79, 6.79, 6.79, 6.72, 6.3, 6.3, 6.3, 6.3, 6.3, 6.3, 6.3, 6.3, 6.3, 6.3, 6.3, 6.3, 6.3, 6.3, 6.1, 6.28, 6.67, 6.56, 6.95, 7.08, 7.48, 7.48, 7.48, 7.48, 6.95, 6.56, 6.41, 5.86, 5.49, 5.49, 5.59, 5.86, 6.03, 6.8, 6.16, 6.45, 6.7, 7.63, 7.76, 7.76, 7.82, 8.0, 8.72, 9.75, 10.25, 11.61, 13.49, 14.55, 12.94, 9.83, 7.15, 3.6, 1.74, 1.74, 3.2, 3.9, 3.39, 2.4, 2.4, 2.4, 5.81, 5.81, 5.79, 5.78, 5.78, 5.78, 5.7, 5.7, 5.7, 5.7, 5.7, 5.57, 5.57, 5.57, 5.57, 5.57, 5.57, 5.57, 5.57, 5.4, 5.81, 5.81, 5.81, 5.81, 5.81, 5.88, 6.3, 6.3, 6.3, 6.3, 6.3, 6.3, 6.72, 6.79, 6.79, 6.79, 6.72, 6.3, 6.3, 6.3, 6.3, 6.3, 5.88, 6.3, 6.3, 6.3, 6.3, 6.3, 6.3, 6.3, 6.3, 6.1, 6.1, 6.28, 6.41, 6.56, 6.95, 6.95, 7.08, 7.48, 7.48, 7.07, 6.95, 6.95, 6.41, 6.03, 5.86, 5.86, 5.59, 6.15, 6.03, 7.35, 6.51, 7.15, 6.65, 7.42, 7.63, 7.76, 7.82, 8.4, 8.8, 9.49, 10.43, 11.37, 13.29, 14.11, 12.86, 10.7, 8.49, 5.77, 2.6, 1.74, 2.53, 3.74, 3.74, 3.2, 3.2, 3.2, 5.78, 5.78, 5.78, 5.78, 5.78, 5.78, 5.7, 5.7, 5.7, 5.7, 5.57, 5.57, 5.57, 5.57, 5.57, 5.57, 5.57, 5.4, 5.4, 5.4, 5.4, 5.4, 5.81, 5.81, 5.81, 5.81, 5.81, 5.88, 6.3, 6.3, 6.3, 6.3, 6.72, 6.72, 6.72, 6.51, 6.1, 6.3, 6.3, 6.3, 6.3, 5.81, 5.81, 5.81, 6.3, 6.3, 6.3, 6.3, 6.23, 5.81, 6.0, 6.1, 6.28, 6.41, 6.41, 6.41, 6.56, 6.95, 6.95, 6.95, 6.95, 6.95, 6.95, 6.56, 6.41, 6.41, 6.03, 6.03, 5.86, 5.86, 6.03, 6.1, 5.57, 7.6, 6.26, 7.1, 7.42, 7.89, 8.0, 8.4, 8.63, 9.6, 10.0, 11.09, 12.37, 13.18, 12.41, 10.7, 9.36, 8.0, 4.22, 1.8, 1.49, 3.16, 3.83, 4.0, 4.0, 4.0, 5.78, 5.78, 5.78, 5.78, 5.78, 5.78, 5.7, 5.7, 5.7, 5.7, 5.57, 5.57, 5.57, 5.57, 5.57, 5.57, 5.57, 5.4, 5.4, 5.4, 5.4, 5.4, 5.81, 5.81, 5.81, 5.81, 5.81, 5.88, 6.3, 6.3, 6.3, 6.3, 6.72, 6.72, 6.72, 6.51, 6.1, 6.3, 6.3, 6.3, 6.3, 5.81, 5.81, 5.81, 6.3, 6.3, 6.3, 6.3, 6.23, 5.81, 6.0, 6.1, 6.28, 6.41, 6.41, 6.41, 6.56, 6.95, 6.95, 6.95, 6.95, 6.95, 6.95, 6.56, 6.41, 6.41, 6.03, 6.03, 5.86, 5.86, 6.03, 6.1, 5.57, 7.6, 6.26, 7.1, 8.06, 7.89, 8.0, 8.4, 8.63, 9.42, 10.0, 10.55, 11.37, 12.09, 11.96, 10.6, 9.8, 8.8, 6.16, 2.68, 0.88, 2.0, 2.68, 3.16, 3.16, 3.16]}, {"header": {"dx": 0.06612293990616946, "dy": 0.0552356325346848, "nx": 98, "ny": 59, "la1": 35.046912555036876, "la2": 31.78801023549047, "lo1": -121.43107172385933, "lo2": -114.95102361305473, "refTime": "2026041000", "parameterCategory": 1, "parameterNumber": 3}, "data": [0.0, 0.0, -0.55, -0.55, -0.61, -0.61, -0.61, -0.55, -0.55, -0.57, 0.0, 0.0, 0.0, -0.89, -0.83, 0.0, 0.0, 0.0, 0.0, 0.0, 0.0, 1.32, 0.84, 0.85, 0.85, 0.0, 0.0, 0.0, 0.0, -0.81, -1.75, -3.79, -4.02, -3.13, -3.39, -4.0, -4.22, -4.6, -4.54, -3.63, -3.11, -3.55, -3.8, -3.52, -3.45, -3.36, -3.25, -2.49, -1.69, -0.82, 0.0, 0.82, 1.69, 2.41, 3.29, 4.06, 4.93, 5.48, 5.67, 5.67, 5.67, 5.67, 5.48, 5.48, 5.48, 4.81, 4.81, 4.1, 4.1, 3.23, 3.23, 3.32, 3.19, 3.19, 3.19, 2.44, 1.64, 1.42, 0.8, 0.0, 0.0, 0.0, 0.0, -0.81, -0.81, -0.77, -0.85, -0.8, 0.0, 0.0, 0.0, 0.0, 0.0, 0.0, 0.83, 2.64, 5.37, 6.82, 0.0, 0.0, 0.0, -0.55, -0.55, -0.61, -0.61, -0.55, -0.55, -0.57, 0.0, 0.0, 0.0, -0.89, -1.25, -1.25, -0.83, 0.0, 0.0, 0.0, 0.0, 0.0, 1.32, 1.4, 0.84, 0.85, 0.0, 0.0, 0.0, -0.89, -2.54, -4.11, -4.02, -2.97, -3.35, -3.58, -4.6, -4.6, -4.98, -4.54, -4.74, -5.03, -4.71, -4.96, -5.06, -4.07, -3.36, -2.47, -0.81, 0.0, 1.6, 3.36, 4.8, 5.2, 5.89, 6.43, 6.31, 6.31, 6.31, 5.67, 5.67, 5.48, 5.48, 4.81, 4.1, 3.96, 3.23, 3.23, 3.23, 3.23, 4.06, 4.06, 4.06, 4.06, 4.06, 3.19, 2.44, 1.42, 0.8, 0.0, 0.0, 0.0, 0.0, -0.81, -0.81, -0.77, -0.85, -0.8, 0.0, 0.0, 0.0, 0.0, 0.0, 0.0, 0.83, 2.64, 5.37, 6.82, 0.0, 0.0, 0.0, 0.0, -0.55, -0.55, -0.55, -0.55, -0.55, -0.57, -0.59, 0.0, 0.0, -0.89, -1.63, -1.73, -1.84, -1.65, -0.94, 0.0, 0.0, 0.0, 0.0, 1.32, 1.2, 0.89, 0.85, 0.0, 0.0, -1.75, -2.54, -4.11, -4.38, -4.0, -2.53, -3.48, -3.58, -4.6, -5.2, -5.21, -5.43, -5.69, -5.89, -5.76, -4.83, -4.0, -2.54, 0.0, 1.75, 4.0, 5.76, 6.45, 6.33, 7.12, 6.44, 6.65, 6.31, 5.67, 5.67, 5.67, 5.67, 4.81, 4.81, 3.96, 3.23, 3.23, 2.37, 2.37, 3.32, 5.06, 5.72, 5.72, 5.4, 4.75, 4.06, 3.19, 2.44, 1.58, 0.73, 0.0, 0.0, -0.85, -0.81, -0.85, -1.44, -1.44, -1.49, -0.89, -0.84, 0.0, 0.0, 0.0, 0.82, 1.6, 3.72, 5.06, 6.11, 6.11, 0.0, 0.0, 0.0, 0.0, -0.55, -0.55, -0.55, -1.08, -1.23, -0.57, -0.59, -0.59, -0.88, -0.89, -1.63, -1.73, -2.67, -2.83, -1.75, -1.75, -0.84, 0.0, 0.0, 0.0, 0.89, 1.26, 0.8, 0.0, -0.85, -1.67, -3.27, -5.15, -5.2, -4.84, -3.48, -3.48, -4.46, -4.84, -5.75, -6.21, -6.82, -6.39, -5.89, -5.1, -4.26, -1.73, 0.83, 4.26, 6.04, 7.08, 7.09, 7.12, 7.12, 6.56, 6.21, 5.8, 5.48, 5.67, 5.67, 5.67, 4.81, 4.1, 3.23, 3.23, 2.37, 2.37, 2.44, 3.76, 5.77, 7.02, 7.38, 6.21, 4.93, 3.68, 2.99, 1.64, 0.8, 0.82, 0.0, 0.0, -0.74, -0.81, -1.67, -1.75, -1.65, -1.65, -1.73, -0.83, 0.0, 0.89, 2.8, 2.8, 3.72, 5.06, 6.11, 6.44, 6.11, 5.77, 0.0, 0.0, 0.0, 0.0, 0.0, -0.55, -0.55, -1.08, -1.23, -1.11, -1.13, -1.13, -0.88, -1.03, -1.63, -2.67, -2.4, -2.54, -3.27, -2.54, -2.69, -1.25, 0.0, 0.0, 0.0, 0.0, 1.32, 0.0, 0.0, -0.83, -1.84, -4.29, -6.21, -5.49, -5.06, -4.74, -5.21, -5.6, -5.75, -6.57, -6.18, -5.77, -4.95, -3.33, -0.82, 2.47, 5.59, 7.27, 8.22, 8.12, 7.24, 6.33, 6.33, 6.56, 5.6, 5.8, 5.48, 5.67, 5.67, 4.71, 3.87, 3.14, 3.23, 2.37, 2.37, 2.34, 4.8, 7.36, 9.17, 9.06, 8.18, 6.43, 4.24, 3.19, 1.7, 0.73, 0.0, 0.0, 0.0, 0.0, -0.74, -1.67, -1.75, -1.73, -1.84, 0.0, 0.88, 1.7, 3.63, 4.29, 5.06, 5.37, 6.18, 6.82, 6.79, 6.44, 5.37, 4.58, 0.0, 0.0, 0.0, 0.0, 0.0, -0.55, -0.55, -1.08, -1.23, -1.11, -1.13, -1.13, -1.05, -1.98, -1.96, -2.67, -2.4, -2.83, -3.27, -3.27, -3.6, -2.67, -1.25, 0.0, 0.0, 0.0, 0.0, 1.4, 1.32, 1.4, 0.89, 0.0, -3.55, -5.53, -4.83, -4.95, -4.43, -3.93, -4.82, -5.51, -5.2, -4.43, -2.53, 0.0, 3.47, 6.64, 8.31, 8.12, 8.12, 6.97, 6.45, 6.45, 5.72, 5.93, 5.6, 5.48, 5.48, 4.81, 4.71, 4.0, 3.14, 2.45, 2.37, 1.54, 3.29, 5.52, 9.0, 9.92, 9.89, 8.66, 7.01, 5.8, 4.65, 3.32, 1.63, 0.82, 0.0, 0.81, 0.85, 0.0, -0.89, -0.89, -0.89, 0.0, 0.98, 3.16, 4.54, 5.21, 5.15, 5.49, 6.18, 6.44, 6.8, 6.44, 5.77, 5.37, 4.58, 4.29, 0.0, 0.0, 0.0, 0.0, 0.0, -0.55, -0.55, -1.08, -1.23, -1.11, -1.13, -1.13, -0.88, -1.72, -2.54, -2.67, -2.54, -2.69, -3.45, -3.8, -3.8, -3.45, -2.54, -0.94, 0.0, 0.0, 0.0, 1.4, 2.82, 3.77, 3.8, 1.73, 0.0, -2.54, -2.99, -2.4, -0.83, -1.55, -3.58, -4.02, -4.66, -2.53, 1.8, 6.13, 7.81, 8.38, 8.93, 8.42, 8.12, 6.7, 6.7, 5.86, 5.72, 5.6, 5.6, 4.81, 4.81, 4.1, 3.14, 2.39, 2.45, 1.6, 1.64, 3.25, 6.83, 10.04, 11.28, 10.28, 8.76, 7.12, 5.6, 4.81, 3.73, 2.45, 1.58, 1.62, 0.85, 0.85, 0.85, 0.84, 0.0, 0.0, 2.23, 3.9, 4.92, 4.85, 5.2, 5.21, 4.43, 5.21, 5.43, 5.43, 6.16, 5.58, 4.74, 4.29, 4.29, 4.29, 0.0, 0.0, 0.0, 0.0, 0.0, -0.55, -0.55, -1.08, -1.08, -1.76, -1.6, -1.61, -1.99, -3.0, -3.6, -4.03, -3.91, -3.32, -3.15, -3.32, -3.32, -3.06, -2.47, -2.47, -0.85, 0.0, 0.0, 1.25, 2.54, 2.69, 2.69, 1.32, 0.0, 0.0, 1.55, 3.27, 2.99, 1.84, 0.0, -2.53, 0.0, 4.0, 7.06, 8.22, 8.15, 8.15, 7.9, 8.12, 7.73, 7.68, 5.63, 5.51, 5.6, 5.6, 4.93, 4.93, 4.06, 3.11, 2.37, 2.37, 1.64, 1.58, 2.39, 6.64, 10.63, 11.88, 11.28, 9.17, 7.24, 6.33, 4.93, 3.23, 2.39, 1.65, 0.83, 0.73, 0.82, 0.81, 0.85, 0.84, 0.78, 1.66, 3.47, 4.47, 4.47, 3.95, 3.22, 2.95, 3.48, 3.93, 4.15, 4.66, 4.98, 4.54, 3.63, 3.47, 4.01, 5.15, 0.0, 0.0, 0.0, 0.0, 0.0, -0.55, -0.55, -1.19, -1.73, -1.76, -2.23, -2.84, -4.74, -3.72, -3.77, -4.68, -5.53, -4.71, -4.12, -3.8, -4.0, -3.52, -3.63, -2.7, -2.47, -1.22, 0.0, 0.0, 1.32, 0.0, 0.0, 0.0, 1.32, 4.14, 6.01, 5.76, 5.1, 3.7, 2.54, 3.0, 5.06, 7.44, 8.54, 8.15, 7.21, 6.64, 7.27, 7.95, 7.51, 7.12, 6.67, 5.51, 5.72, 5.72, 5.06, 4.17, 3.29, 3.16, 2.41, 2.41, 1.63, 1.6, 5.24, 10.85, 12.7, 11.9, 10.58, 8.76, 7.24, 5.72, 4.06, 2.1, 0.81, 0.71, 0.0, 0.0, 0.0, 0.0, 0.0, 0.0, 0.0, 1.66, 2.97, 3.58, 3.13, 2.4, 2.21, 1.98, 2.98, 3.47, 3.58, 3.58, 3.47, 3.58, 3.79, 3.63, 4.89, 5.58, 0.0, 0.0, 0.0, 0.0, 0.0, -0.55, -0.61, -1.19, -1.73, -1.73, -2.44, -3.49, -3.83, -3.84, -4.68, -4.68, -5.53, -5.53, -5.59, -5.31, -5.31, -5.31, -4.71, -4.0, -3.52, -2.58, -1.26, 0.0, 0.0, 0.0, 0.0, 0.0, 2.54, 6.63, 6.32, 4.66, 2.49, 2.44, 5.21, 6.98, 7.9, 8.22, 7.59, 6.32, 5.59, 5.76, 5.64, 5.76, 6.33, 6.56, 6.56, 6.33, 6.45, 6.45, 5.63, 5.14, 4.92, 4.71, 4.07, 2.59, 1.75, 4.95, 10.79, 12.98, 12.79, 11.53, 10.58, 9.17, 7.8, 5.86, 3.19, 1.44, 0.71, 0.0, -0.72, -2.19, -2.41, -2.39, -1.47, -1.44, 0.0, 1.49, 2.6, 2.97, 2.54, 1.9, 1.74, 1.74, 2.97, 3.13, 3.47, 3.47, 4.02, 3.9, 3.93, 4.6, 5.2, 5.21, 0.0, 0.0, 0.0, 0.0, 0.0, -0.55, -0.61, -1.19, -1.73, -2.4, -2.4, -3.08, -3.45, -3.42, -3.63, -3.32, -3.63, -1.55, -1.54, -1.14, -2.57, -2.83, -2.69, -1.95, -1.2, -1.2, 0.0, 0.0, 0.0, 0.0, 0.0, 1.84, 4.5, 5.69, 3.33, 1.2, 1.22, 4.6, 6.42, 8.01, 7.9, 7.24, 6.7, 6.3, 4.96, 5.1, 5.21, 5.06, 4.92, 5.41, 6.97, 7.73, 8.12, 8.22, 7.59, 7.97, 8.65, 7.59, 4.83, 2.54, 4.16, 9.9, 13.23, 13.64, 13.19, 12.27, 11.54, 11.28, 9.62, 7.36, 4.68, 2.99, 1.41, 0.0, -2.18, -4.24, -5.0, -4.92, -4.2, -2.54, 0.0, 3.48, 4.46, 3.58, 3.58, 3.16, 3.16, 2.41, 2.97, 3.6, 3.16, 3.58, 3.6, 4.02, 4.0, 4.57, 4.22, 4.22, 0.0, 0.0, 0.0, 0.0, -0.55, -0.61, -1.19, -1.07, -1.7, -1.7, -2.36, -2.82, -3.45, -3.4, -3.35, -2.28, -1.11, 0.0, 0.58, 0.57, 0.57, 0.57, 0.58, 0.0, 0.0, 0.0, 0.0, 0.55, 0.89, 0.0, 1.16, 2.71, 4.6, 4.12, 0.84, 0.0, 1.47, 5.14, 7.08, 7.51, 7.38, 7.12, 6.2, 4.88, 5.03, 4.16, 4.71, 5.21, 4.88, 5.98, 7.59, 8.22, 9.0, 9.67, 10.0, 10.55, 10.87, 9.27, 5.06, 3.55, 7.89, 12.58, 13.91, 13.23, 12.79, 13.43, 13.83, 13.25, 11.88, 9.96, 7.36, 5.89, 2.76, 0.0, -3.91, -5.63, -6.83, -6.64, -6.01, -2.4, 2.95, 5.82, 5.82, 4.89, 4.46, 4.01, 3.72, 3.07, 3.13, 3.16, 2.98, 3.16, 2.53, 3.13, 3.13, 3.39, 2.98, 2.98, 0.0, 0.0, 0.0, 0.0, -0.55, -0.61, -1.07, -1.16, -1.7, -1.7, -2.36, -2.8, -3.0, -3.4, -3.35, -2.28, -1.14, 0.0, 1.16, 1.71, 1.19, 1.75, 1.68, 1.12, 1.12, 1.12, 1.12, 1.68, 1.71, 0.58, 0.0, 1.63, 2.41, 2.49, 0.78, 1.67, 3.06, 4.92, 5.52, 5.63, 5.72, 5.6, 5.63, 4.34, 2.66, 3.0, 3.91, 3.8, 5.21, 6.3, 6.32, 6.68, 7.06, 8.14, 9.63, 10.6, 10.55, 9.17, 4.92, 4.95, 9.97, 12.58, 12.56, 12.15, 12.7, 13.11, 13.48, 13.75, 12.79, 11.9, 10.12, 8.56, 4.92, 0.0, -3.79, -5.6, -6.51, -6.45, -3.58, 1.98, 6.0, 6.44, 5.3, 4.83, 5.06, 4.29, 3.72, 2.53, 2.68, 2.53, 2.29, 1.66, 1.74, 1.9, 2.24, 2.24, 2.24, 1.58, 0.0, 0.0, 0.0, 0.0, -0.55, -0.61, -1.07, -1.16, -1.7, -1.84, -2.16, -2.32, -2.77, -2.75, -2.89, -2.83, -1.71, -1.12, 0.0, 0.55, 0.57, 1.13, 1.17, 1.68, 1.73, 1.79, 1.72, 2.35, 2.28, 1.17, 0.0, 0.0, 0.0, 0.0, 1.62, 2.44, 3.15, 4.2, 3.88, 4.07, 3.85, 3.16, 2.33, 2.28, 2.4, 2.66, 2.35, 3.8, 4.71, 6.01, 6.28, 5.06, 5.36, 6.23, 6.64, 6.0, 6.28, 5.69, 4.58, 5.89, 10.45, 12.51, 12.04, 11.6, 11.09, 10.96, 10.8, 10.4, 11.12, 9.62, 9.7, 8.66, 4.54, -0.0, -1.84, -2.95, -3.35, 0.0, 3.16, 6.44, 7.41, 6.64, 5.13, 3.7, 4.03, 3.4, 2.51, 1.7, 2.24, 0.73, 0.76, -0.0, -0.0, -0.0, -0.0, -0.0, 0.0, 0.0, 0.0, 0.0, 0.0, -0.55, -0.61, -0.61, -1.07, -1.16, -1.7, -1.67, -1.67, -2.32, -2.29, -2.26, -2.23, -2.33, -2.17, -1.71, -1.12, 0.0, 0.0, 0.57, 1.13, 1.17, 1.73, 1.72, 2.35, 2.35, 2.26, 1.77, 0.56, -0.59, -1.16, 0.0, 1.22, 2.46, 2.58, 3.32, 3.61, 2.47, 1.56, 1.16, 1.18, 1.16, 1.32, 1.25, 1.32, 3.6, 5.37, 5.36, 3.76, 4.43, 4.11, 5.2, 5.01, 5.01, 2.8, 1.52, 2.93, 7.24, 8.95, 9.6, 9.1, 8.73, 8.73, 8.73, 8.73, 8.37, 7.56, 6.98, 6.45, 5.63, 1.13, -0.96, -0.0, 3.35, 5.29, 6.82, 8.03, 8.31, 7.48, 5.76, 4.6, 2.97, 2.17, 2.54, 1.65, 0.82, 1.26, -0.0, -0.0, -0.73, -0.0, -0.0, -0.0, 1.79, 1.79, 1.79, 0.0, 0.0, 0.0, -0.55, -0.61, -0.54, -1.07, -1.16, -1.7, -1.67, -1.8, -2.14, -2.29, -2.26, -2.23, -2.37, -1.67, -1.73, -1.14, -0.59, 0.0, 0.0, 0.57, 1.12, 1.73, 2.28, 2.35, 2.33, 1.76, 1.76, 1.18, 0.0, -0.59, -1.11, 0.0, 0.76, 2.44, 3.32, 2.23, 1.14, 0.0, 0.0, 0.0, 1.11, 1.2, 1.25, 2.66, 5.06, 5.36, 5.36, 4.43, 4.11, 3.76, 4.43, 3.76, 3.76, 1.32, 0.0, 3.39, 6.71, 7.76, 8.0, 6.95, 6.01, 4.96, 4.96, 5.24, 6.01, 6.01, 4.88, 3.36, 0.75, -1.84, -2.4, 3.9, 8.06, 9.67, 10.24, 9.48, 7.9, 7.12, 5.72, 4.01, 2.49, 1.6, 0.0, 0.0, 0.0, 0.0, -0.0, -0.0, -0.0, 2.21, 2.97, 3.13, 3.13, 3.04, 3.04, 0.0, 0.0, 0.0, -0.61, -0.61, -0.54, -1.07, -1.16, -1.14, -1.67, -1.8, -1.65, -1.76, -1.73, -1.73, -1.71, -1.69, -1.75, -1.1, -0.57, 0.0, 0.0, 0.0, 1.13, 1.68, 2.28, 1.7, 1.18, 1.18, 1.18, 0.59, 0.59, 0.0, -1.13, -0.77, 0.0, 0.8, 1.16, 1.22, 0.0, 0.0, 0.0, 0.0, 0.84, 1.14, 2.66, 5.06, 6.13, 5.72, 4.74, 4.02, 4.29, 4.75, 4.75, 3.6, 3.8, 2.46, 2.28, 4.6, 6.71, 7.59, 6.95, 5.21, 3.52, 3.52, 2.54, 3.8, 3.6, 3.8, 2.58, 0.0, -0.75, -1.6, 0.89, 6.64, 9.96, 10.43, 10.25, 9.49, 8.18, 7.13, 5.67, 4.06, 2.82, 1.68, 0.85, 0.0, 0.0, 1.2, 1.98, 1.6, 3.22, 4.15, 4.85, 4.92, 4.47, 4.41, 4.41, 0.0, 0.0, 0.0, -0.61, -0.54, -0.54, -1.16, -1.16, -1.14, -1.67, -1.8, -1.65, -1.76, -1.63, -1.73, -1.71, -1.69, -1.67, -1.18, -0.55, 0.0, -0.56, 0.0, 0.58, 1.71, 1.75, 0.59, 0.0, 0.0, 0.0, 0.0, 0.0, 0.0, -0.56, -1.14, -1.58, -1.58, -1.16, -1.22, -1.22, 0.0, 0.0, 0.0, 1.25, 2.4, 4.75, 6.28, 6.28, 4.75, 4.75, 4.75, 4.75, 5.03, 4.71, 3.8, 3.52, 3.7, 4.4, 5.98, 6.98, 6.98, 5.72, 3.7, 2.58, 2.28, 1.67, 0.89, 0.0, 0.0, 0.0, -1.25, 0.0, 0.81, 3.91, 7.11, 8.86, 8.86, 8.16, 7.2, 6.47, 5.73, 4.87, 3.87, 2.21, 1.75, 0.0, -0.89, -2.68, -0.0, 2.68, 3.58, 3.93, 4.22, 4.15, 4.47, 4.02, 4.47, 4.47, 0.0, 0.0, 0.0, -0.54, -0.54, -0.54, -1.16, -1.16, -1.14, -1.67, -1.8, -1.65, -1.76, -1.63, -1.63, -1.67, -1.71, -1.16, -0.54, 0.0, -0.57, -1.74, -1.79, -0.82, 0.0, 0.0, -0.55, -0.78, -0.79, -0.56, -0.56, 0.0, 0.0, 0.0, -0.54, -1.05, -2.18, -2.75, -2.39, -1.18, 0.0, 0.0, 1.11, 2.46, 4.96, 5.72, 5.72, 4.71, 4.46, 3.6, 4.46, 4.71, 4.71, 4.71, 4.44, 4.66, 4.66, 5.72, 6.24, 5.69, 4.6, 3.45, 2.28, 1.67, 1.75, 0.85, 0.0, 0.0, -0.82, -1.16, 0.0, 1.63, 3.18, 4.7, 4.79, 4.85, 4.07, 3.13, 3.13, 3.3, 2.41, 2.33, 2.45, 2.15, 1.68, 1.75, 0.85, 0.8, 1.9, 3.22, 3.93, 3.48, 3.16, 2.98, 2.97, 3.58, 4.47, 4.47, 0.0, 0.0, 0.0, -0.54, -0.54, -0.54, -1.16, -1.16, -1.14, -1.67, -1.8, -1.65, -1.76, -1.63, -1.73, -2.26, -1.73, -1.76, -1.75, -0.85, -2.34, -2.28, -3.52, -3.95, -4.17, -3.11, -2.37, -1.1, -0.58, 0.0, 0.0, 0.58, 1.09, 1.15, 0.56, 0.0, -1.05, -1.65, -1.09, -0.54, 0.0, 1.11, 2.17, 3.32, 4.69, 4.6, 4.66, 3.52, 3.35, 3.6, 3.6, 3.6, 3.8, 3.8, 3.91, 4.34, 5.45, 5.13, 5.64, 4.6, 3.45, 2.28, 2.28, 1.16, 0.85, 0.85, 0.0, 0.0, 0.0, 0.0, 0.0, 1.56, 2.37, 2.38, 1.63, 0.0, -0.8, -1.64, -0.8, 0.0, 0.0, 0.77, 0.81, 1.64, 1.69, 1.43, 1.43, 1.39, 2.2, 3.83, 4.47, 4.15, 3.35, 2.97, 3.13, 4.02, 5.36, 5.36, 0.0, 0.0, 0.0, -0.54, -0.54, -0.59, -1.16, -1.16, -1.14, -1.67, -1.8, -1.65, -1.76, -1.63, -1.73, -1.71, -1.71, -1.73, -2.26, -3.36, -3.29, -2.23, -2.12, -2.92, -3.32, -2.77, -1.14, -0.57, 0.0, 0.54, 1.12, 1.67, 1.74, 1.74, 1.67, 1.15, 0.0, 0.0, 0.0, 0.0, 0.55, 1.15, 2.25, 3.3, 4.0, 4.6, 3.7, 3.7, 2.46, 2.33, 2.54, 2.54, 3.6, 3.6, 4.71, 5.1, 5.76, 6.14, 5.45, 3.7, 2.28, 2.28, 1.16, 0.0, 0.0, 0.0, 0.0, 0.0, 0.0, 0.83, 0.81, 1.59, 2.42, 1.6, 0.0, -2.4, -5.81, -5.56, -5.51, -3.95, -2.35, -0.77, 0.0, 0.73, 0.82, 0.82, 0.85, 1.47, 2.17, 3.6, 5.15, 6.45, 5.73, 4.15, 4.4, 5.34, 6.51, 6.51, 0.0, 0.0, 0.0, -0.54, -0.59, -0.59, -1.16, -1.16, -1.14, -1.14, -1.8, -1.65, -1.76, -1.73, -1.73, -1.71, -2.23, -2.23, -2.86, -3.49, -2.77, -1.11, -0.57, -1.14, -1.12, -1.15, -0.57, 0.0, 0.56, 1.16, 1.16, 1.72, 1.72, 1.72, 1.72, 1.16, 1.11, 0.57, 0.0, 0.0, 0.0, 0.58, 1.63, 2.28, 3.52, 4.05, 3.45, 2.17, 1.26, 1.14, 2.4, 2.4, 2.4, 3.6, 5.03, 6.01, 6.32, 7.27, 5.45, 3.7, 2.44, 1.6, 0.81, 0.0, 0.0, 0.0, 0.0, 0.0, 0.0, 1.11, 2.37, 4.66, 5.76, 3.99, -1.6, -3.53, -5.1, -6.67, -7.34, -7.25, -5.73, -3.78, -0.81, 0.0, 0.82, 0.85, 0.85, 1.58, 2.99, 3.6, 6.06, 7.28, 6.7, 6.08, 6.08, 6.64, 7.35, 7.35, 0.0, 0.0, 0.0, 0.0, -0.59, -0.59, -1.16, -1.05, -1.14, -1.14, -1.8, -1.65, -1.76, -1.73, -1.73, -1.71, -2.23, -2.37, -2.86, -2.97, -2.25, -1.15, -0.58, 0.0, 0.0, 0.0, 0.0, 0.0, 0.0, 0.57, 0.57, 1.14, 1.14, 1.14, 1.14, 1.1, 1.16, 0.56, 0.56, 0.0, 0.55, 0.58, 1.16, 1.75, 2.89, 3.4, 3.3, 1.11, 0.0, 1.25, 1.18, 2.66, 3.68, 3.91, 4.75, 5.37, 6.11, 6.64, 5.98, 4.34, 2.54, 0.85, 0.0, 0.0, 0.0, 0.0, 0.0, 0.0, 0.0, 2.47, 5.0, 5.86, 4.94, 3.33, 2.19, 0.0, -0.79, -2.31, -4.5, -6.36, -6.77, -5.6, -3.19, -1.58, 0.0, 0.81, 2.44, 3.45, 5.1, 6.73, 6.7, 7.69, 6.98, 6.68, 6.7, 6.7, 7.28, 7.28, 0.0, 0.0, 0.0, 0.0, -0.59, -0.59, -0.53, -1.05, -1.14, -1.14, -1.8, -1.65, -1.76, -1.73, -2.26, -1.71, -2.37, -2.21, -2.33, -2.3, -2.28, -1.71, -1.15, -1.14, -0.6, 0.0, 0.0, 0.0, 0.0, 0.0, 0.0, 0.57, 0.57, 0.57, 0.55, 0.58, 1.16, 1.11, 0.59, 0.56, 0.57, 0.58, 1.11, 1.67, 2.23, 2.29, 1.16, 1.16, 1.2, 2.54, 2.4, 3.4, 3.68, 3.68, 4.29, 5.06, 4.43, 5.06, 6.01, 4.88, 2.54, 0.89, 0.8, 0.8, 0.8, 0.81, 0.81, 1.09, 2.57, 4.2, 5.06, 1.13, 2.42, 3.99, 5.51, 5.5, 4.28, 2.19, 0.0, -2.17, -4.31, -5.3, -5.0, -3.46, -0.82, 0.81, 3.45, 5.1, 5.89, 7.02, 7.41, 7.33, 6.32, 6.01, 6.35, 6.7, 7.67, 7.67, 0.0, 0.0, 0.0, 0.0, 0.0, -0.59, -0.53, -1.05, -1.14, -1.14, -1.8, -1.65, -1.76, -1.73, -2.26, -2.23, -1.81, -1.69, -2.33, -2.19, -1.75, -1.73, -1.73, -1.15, -1.14, -0.56, -0.56, 0.0, 0.0, 0.0, 0.0, 0.0, 0.0, 0.0, 0.55, 0.58, 0.58, 0.56, 1.17, 1.12, 1.14, 1.15, 1.16, 1.67, 1.71, 1.73, 0.58, 1.14, 1.69, 2.37, 2.23, 2.46, 2.4, 2.66, 3.45, 4.02, 3.76, 2.76, 2.49, 4.0, 3.87, 2.54, 1.75, 1.75, 1.67, 1.67, 2.35, 3.49, 5.64, 4.71, 2.41, 0.0, 1.1, 3.96, 5.6, 6.42, 5.8, 4.88, 2.09, 0.0, -2.15, -3.69, -4.31, -2.97, 0.0, 1.75, 4.26, 5.24, 6.01, 6.68, 6.95, 6.64, 5.94, 5.89, 6.01, 6.68, 7.32, 7.32, 0.0, 0.0, 0.0, 0.0, 0.0, -0.53, -0.53, -1.14, -1.14, -1.14, -1.65, -1.65, -1.76, -1.73, -2.26, -2.23, -1.81, -1.69, -1.69, -1.67, -1.75, -1.65, -1.73, -1.73, -1.15, -1.14, -0.56, -0.59, 0.0, 0.0, 0.0, 0.0, 0.0, 0.0, 0.0, 0.0, 0.0, 0.56, 0.59, 1.12, 1.14, 1.15, 1.73, 1.75, 1.78, 1.69, 1.69, 1.69, 1.78, 1.67, 1.78, 1.16, 1.26, 1.25, 2.66, 2.66, 2.8, 1.52, 1.23, 2.66, 3.7, 3.45, 2.44, 1.75, 1.75, 2.31, 4.12, 5.76, 6.42, 4.25, 2.49, 0.0, 0.79, 2.45, 4.79, 6.52, 6.44, 4.34, 1.56, 0.0, -2.41, -3.78, -2.9, -0.74, 1.52, 3.33, 4.58, 5.77, 6.11, 6.35, 6.64, 6.58, 5.86, 5.94, 6.32, 7.02, 7.33, 7.33, 0.0, 0.0, 0.0, 0.0, 0.0, -0.53, -0.53, -0.58, -1.14, -1.14, -1.65, -1.65, -1.76, -1.73, -1.73, -2.23, -1.71, -1.69, -1.69, -1.78, -1.67, -1.75, -1.65, -1.73, -1.73, -1.15, -1.14, -0.56, -0.59, 0.0, 0.0, 0.0, 0.0, 0.0, 0.0, 0.0, 0.0, 0.0, 0.57, 0.57, 1.14, 1.15, 1.63, 1.65, 2.3, 1.67, 1.67, 1.67, 1.12, 1.12, 0.56, 0.57, 0.0, 0.56, 0.79, 1.63, 1.4, 1.23, 1.84, 1.72, 2.33, 2.47, 2.23, 0.8, 1.2, 3.4, 5.89, 6.53, 5.06, 3.11, 1.63, 0.0, 0.0, 0.81, 2.43, 3.98, 3.18, 1.39, 0.0, -1.69, -3.27, -3.22, 0.0, 1.6, 3.16, 3.79, 5.15, 5.77, 5.69, 6.01, 6.32, 6.58, 6.83, 6.53, 6.58, 6.58, 6.58, 6.58, 0.0, 0.0, 0.0, 0.0, 0.0, -0.53, -0.58, -0.58, -1.14, -1.12, -1.65, -1.76, -1.76, -1.73, -1.73, -1.71, -1.71, -1.69, -1.69, -1.78, -1.67, -1.75, -1.75, -1.65, -1.73, -1.16, -1.15, -1.15, -1.14, -0.6, -0.59, -0.56, -0.58, 0.0, 0.0, 0.0, 0.0, 0.0, 0.0, 0.57, 0.55, 1.15, 1.73, 2.17, 2.28, 2.28, 1.73, 1.11, 0.56, 0.0, 0.0, 0.0, 0.0, 0.0, 0.0, 0.0, 0.0, 0.0, 0.88, 1.6, 0.89, 0.81, 0.0, 0.81, 2.67, 5.72, 7.35, 5.76, 3.49, 1.62, 0.82, 0.0, -0.8, -0.83, -0.81, -0.79, -1.6, -0.78, -1.65, -2.31, -3.48, -1.2, 1.2, 3.22, 3.07, 4.01, 5.06, 5.69, 5.59, 5.89, 6.53, 6.7, 6.7, 6.51, 6.51, 6.51, 5.78, 5.78, 0.0, 0.0, 0.0, 0.0, 0.0, 0.0, -0.58, -0.58, -1.14, -1.14, -1.65, -1.76, -1.76, -1.63, -1.73, -1.73, -1.71, -1.81, -1.69, -1.69, -1.78, -1.67, -1.75, -1.75, -1.65, -1.11, -1.16, -1.16, -1.15, -1.14, -0.56, -0.59, -0.59, -0.56, -0.59, 0.0, 0.0, 0.0, 0.0, 0.58, 0.58, 0.55, 1.18, 0.85, 2.47, 2.83, 1.71, 0.0, -1.12, 0.0, 0.0, -0.56, -0.57, -0.58, -1.1, -1.12, -1.25, 0.0, 0.96, 0.82, 0.0, 0.0, 0.0, 0.89, 4.26, 7.41, 7.68, 5.64, 3.32, 0.78, 0.0, 0.0, -1.55, -2.39, -4.76, -5.67, -5.56, -3.13, -1.61, -0.82, -0.83, 0.0, 1.76, 2.8, 3.6, 4.37, 4.28, 5.06, 5.52, 5.76, 6.57, 6.2, 5.77, 6.71, 6.44, 5.95, 5.46, 5.46, 0.0, 0.0, 0.0, 0.0, 0.0, 0.0, -0.58, -0.58, -1.14, -1.12, -1.12, -1.65, -1.76, -1.63, -1.73, -1.73, -1.71, -1.71, -1.69, -1.69, -1.78, -1.67, -1.67, -1.67, -1.75, -1.18, -1.11, -1.16, -1.1, -1.15, -1.14, -1.12, -1.12, -0.56, -0.56, -0.57, 0.0, 0.0, 0.0, 0.0, 0.0, 0.55, 0.56, 0.0, 0.57, 0.85, 0.0, -0.56, -1.1, -1.05, -0.53, -0.58, -1.09, -1.1, -1.2, -1.65, -1.14, -0.53, 0.0, 0.0, 0.0, -0.81, 0.0, 2.67, 6.01, 6.11, 6.01, 5.72, 3.32, 0.0, -0.79, -0.77, -0.81, -1.62, -4.81, -6.24, -6.24, -4.07, -1.58, 0.0, 0.0, 0.56, 1.12, 2.3, 3.5, 4.39, 4.84, 5.1, 5.1, 5.68, 5.68, 5.6, 5.29, 6.33, 5.54, 5.09, 4.31, 4.31, 0.0, 0.0, 0.0, 0.0, 0.0, 0.0, -0.58, -0.53, -1.12, -1.12, -1.12, -1.12, -1.76, -1.63, -1.73, -1.73, -1.71, -1.71, -1.81, -1.69, -1.69, -1.69, -1.78, -1.67, -1.67, -1.18, -1.18, -1.11, -1.16, -1.15, -1.14, -1.18, -1.18, -1.18, -0.57, -0.57, -0.58, 0.0, 0.0, 0.0, 0.0, 0.0, 0.0, 0.0, 0.0, -1.6, -1.58, -0.56, 0.0, 0.0, 0.0, 0.0, 0.0, -1.14, -1.05, -1.16, -1.7, -1.07, -0.61, 0.0, -0.79, -0.85, 0.8, 4.26, 4.42, 3.33, 2.8, 2.82, 2.58, 0.0, 0.0, 0.0, 0.0, 0.0, -1.6, -4.85, -5.67, -4.76, -2.35, -0.78, 0.0, 0.0, 1.14, 2.35, 2.92, 3.47, 4.17, 4.95, 5.11, 4.94, 5.2, 4.31, 4.31, 3.53, 4.32, 4.4, 3.46, 3.46, 0.0, 0.0, 0.0, 0.0, 0.0, 0.0, -0.53, -0.57, -0.57, -1.12, -1.12, -1.12, -1.65, -1.63, -1.73, -1.73, -1.61, -1.71, -1.71, -1.71, -1.69, -1.69, -1.78, -1.67, -1.67, -1.67, -1.12, -1.12, -0.85, -1.16, -1.71, -1.71, -1.71, -1.15, -1.15, -0.58, -0.55, -0.55, 0.0, 0.0, 0.0, 0.0, 0.0, 0.0, -0.57, -1.67, -1.71, -0.58, 0.0, 0.54, 0.58, 0.58, 0.0, 0.0, 0.0, -0.55, -1.08, -1.23, -1.11, -1.08, -0.83, 0.0, 2.54, 3.09, 2.67, 1.63, 0.0, 0.0, 0.0, 0.0, 0.0, 0.85, 1.11, 1.13, 0.0, -2.36, -4.76, -3.96, -3.14, -2.12, -0.73, 0.0, 1.42, 1.77, 2.35, 2.92, 3.47, 4.03, 4.76, 4.31, 3.53, 3.53, 2.87, 2.18, 2.93, 2.88, 2.95, 2.95, 0.0, 0.0, 0.0, 0.0, 0.0, 0.0, -0.53, -0.57, -0.57, -1.12, -1.12, -1.12, -1.12, -1.76, -1.73, -1.73, -1.73, -1.73, -1.71, -1.71, -1.71, -1.69, -1.69, -1.78, -1.67, -1.67, -1.67, -1.67, -1.67, -2.41, -1.65, -1.11, -1.11, -1.11, -0.56, -0.56, -0.56, -0.56, -0.56, -0.56, 0.0, 0.0, 0.0, 0.0, -0.56, -1.11, -1.16, -0.55, 0.0, 0.0, 0.0, 0.0, 0.0, 0.0, 0.0, 0.0, 0.0, -0.57, -0.57, -0.57, 0.0, 0.83, 1.32, 1.73, 0.89, 0.89, 0.0, -0.89, 0.0, 0.0, 0.85, 1.62, 0.79, 0.0, 0.0, 0.0, -1.54, -1.64, -1.44, -0.72, 0.0, 0.71, 1.42, 1.42, 1.77, 2.35, 2.92, 3.5, 3.28, 3.14, 2.45, 2.1, 1.41, 1.41, 1.44, 1.64, 1.45, 1.45, 0.0, 0.0, 0.0, 0.0, 0.0, 0.0, -0.57, -0.57, -0.57, -1.12, -1.12, -1.12, -1.12, -1.76, -1.63, -1.73, -1.73, -1.73, -1.61, -1.71, -1.71, -1.69, -1.69, -1.69, -1.67, -1.67, -1.67, -1.67, -2.3, -1.73, -1.11, -1.11, -0.56, -0.59, -0.56, -0.56, -0.59, -0.56, -0.56, -0.56, -0.56, 0.0, 0.0, 0.0, 0.0, -0.56, -1.11, -1.16, -1.1, -1.16, -1.16, -0.59, -0.56, -0.56, -0.57, -0.55, -0.57, -0.58, -0.55, -0.55, 0.0, 0.0, 0.0, 0.0, 0.0, 0.0, 0.0, 0.0, 0.0, 0.0, 0.81, 1.18, 0.0, -0.79, -0.81, 0.8, 1.58, 0.77, 0.0, 0.0, 0.0, 0.0, 0.0, 0.73, 0.72, 1.2, 1.72, 1.73, 1.48, 1.46, 0.75, 0.8, 0.73, 0.0, 0.0, 0.7, 0.71, 0.71, 0.0, 0.0, 0.0, 0.0, 0.0, 0.0, -0.57, -0.57, -0.57, -1.12, -1.12, -1.12, -1.2, -1.76, -1.63, -1.63, -1.63, -1.73, -1.73, -1.61, -1.71, -1.71, -1.69, -1.69, -1.78, -1.67, -1.67, -1.67, -1.75, -1.65, -1.11, -1.11, -0.56, -0.56, -0.56, -0.56, -0.59, -0.56, -0.56, -0.54, -0.54, 0.0, 0.0, 0.0, 0.0, -0.56, -0.56, -1.11, -1.65, -1.73, -1.73, -1.65, -1.18, -1.12, -1.14, -1.16, -1.18, -1.12, -1.14, -0.54, 0.0, 0.0, 0.0, 0.0, 0.0, 0.0, 0.0, 0.0, 0.0, 0.0, 0.71, 1.14, 0.0, -0.79, -0.78, 0.79, 3.28, 3.18, 1.6, 0.0, -0.69, -1.42, -0.71, 0.0, 0.0, 0.0, 0.59, 0.74, 0.0, 0.0, 0.0, 0.0, 0.0, 0.0, 0.0, 0.0, 0.0, 0.0, 0.0, 0.0, 0.0, 0.0, 0.0, 0.0, -0.57, -0.57, -0.57, -0.57, -1.12, -1.12, -1.2, -1.76, -1.76, -1.76, -1.63, -1.63, -1.73, -1.73, -1.71, -1.71, -1.69, -1.69, -1.69, -1.78, -1.67, -1.67, -1.67, -1.75, -1.18, -1.11, -1.11, -1.11, -1.11, -0.56, -0.56, -0.56, -0.56, -0.54, -0.57, 0.0, 0.0, 0.0, 0.0, -0.56, -0.56, -1.11, -1.75, -1.65, -2.28, -2.3, -2.3, -1.67, -1.78, -1.69, -1.09, -1.1, -1.12, -1.16, -1.07, 0.0, 0.0, 0.0, 0.0, 0.0, 0.83, 0.84, 0.0, 0.0, 0.0, 0.0, 1.13, 0.0, 0.0, 0.0, 1.6, 2.36, 1.55, 0.0, -1.43, -2.15, -1.42, -1.45, -0.68, 0.0, 0.0, 0.0, 0.0, 0.0, 0.0, 0.0, 0.0, 0.0, 0.0, 0.0, 0.0, 0.0, 0.0, 0.0, 0.0, 0.0, 0.0, 0.0, -0.57, -0.57, -0.57, -0.57, -1.12, -1.12, -1.2, -1.76, -1.76, -1.76, -1.76, -1.63, -1.63, -1.73, -1.61, -1.71, -1.71, -1.69, -1.69, -1.69, -1.78, -1.78, -1.67, -1.67, -1.12, -1.18, -1.18, -1.11, -1.11, -1.11, -1.11, -0.59, -0.56, -0.56, -0.57, -0.54, 0.0, 0.0, 0.0, 0.0, -1.16, -1.65, -2.3, -2.3, -2.3, -2.3, -2.3, -2.33, -2.33, -1.69, -1.71, -1.73, -1.8, -1.14, -1.16, -1.19, 0.0, 0.0, 0.0, 0.0, 0.0, 0.0, 0.0, 0.0, 0.0, 0.0, 1.16, 1.1, 0.0, -0.79, -0.82, -0.79, -0.8, -1.46, -0.74, -0.7, -0.7, -0.72, 0.0, 0.0, 0.0, 0.0, 0.0, 0.0, 0.0, 0.0, 0.0, 0.0, 0.0, 0.0, 0.0, 0.0, 0.0, 0.0, 0.0, 0.0, 0.0, 0.0, -0.57, -0.57, -0.57, -0.57, -1.12, -1.2, -1.2, -1.76, -1.76, -1.76, -1.76, -1.76, -1.63, -1.73, -1.73, -1.71, -1.71, -1.81, -1.69, -1.69, -1.69, -1.69, -1.78, -1.67, -1.67, -1.67, -1.12, -1.18, -1.18, -1.18, -1.18, -1.12, -1.12, -1.12, -1.14, -0.54, -0.56, 0.0, 0.0, 0.0, -1.15, -2.28, -2.83, -2.86, -2.86, -2.86, -2.86, -2.86, -2.33, -2.21, -2.23, -1.73, -1.65, -1.67, -1.7, -1.19, 0.0, 0.0, 0.0, 0.0, 0.0, 0.0, 0.0, 0.0, 0.0, 0.0, 0.0, 0.79, 0.78, 0.0, -1.58, -3.07, -2.79, -2.16, 0.0, 0.0, 0.0, 0.0, 0.0, 0.0, 0.0, 0.0, 0.0, 0.0, 0.0, 0.0, 0.0, 0.0, 0.0, 0.0, 0.71, 0.0, 0.0, 0.0, 0.0, 0.0, 0.0, 0.0, -0.57, -0.57, -0.57, -0.57, -1.12, -1.2, -1.2, -1.2, -1.76, -1.65, -1.65, -1.12, -1.2, -1.63, -1.73, -1.61, -1.71, -1.71, -1.69, -1.69, -1.69, -1.69, -1.69, -1.78, -1.67, -1.67, -1.67, -1.67, -1.67, -1.67, -1.67, -1.12, -1.12, -1.2, -1.14, -1.16, -1.1, -1.14, -0.85, -1.1, -1.71, -2.83, -2.89, -2.92, -2.73, -2.89, -2.89, -2.71, -2.71, -2.21, -2.37, -2.26, -2.29, -2.14, -1.67, -1.7, -0.61, 0.0, 0.0, -1.25, -0.83, -0.89, 0.0, 0.0, 0.0, 0.0, 0.0, 0.0, 2.24, 2.3, 0.0, -2.37, -3.22, -2.19, -1.47, -0.7, 0.0, 0.0, -0.7, -0.72, -0.69, -0.75, -0.75, -0.72, 0.0, 0.0, 0.0, 0.0, 0.0, 0.0, 0.0, 0.71, 0.0, 0.0, 0.0, 0.0, 0.0, 0.0, -0.57, -0.57, -0.57, -0.57, -1.2, -1.2, -1.2, -1.2, -1.12, -1.12, -1.12, -1.12, -1.2, -1.1, -1.73, -1.73, -1.71, -1.71, -1.71, -1.69, -1.69, -1.69, -1.69, -1.69, -1.78, -1.67, -1.67, -1.67, -1.67, -1.67, -1.67, -1.78, -1.78, -1.69, -1.69, -1.71, -1.73, -1.65, -2.92, -3.16, -2.28, -2.23, -2.14, -2.32, -2.14, -2.29, -2.26, -2.92, -2.89, -2.89, -2.89, -2.23, -2.92, -2.44, -2.32, -2.36, -1.4, -1.32, -1.32, 0.0, -0.89, -1.32, 0.0, 0.0, 0.0, 0.0, 0.0, 0.0, 1.2, 3.42, 2.45, 0.0, -2.33, -2.37, -2.14, -1.46, -1.48, -1.43, -1.43, -1.46, -1.5, -1.5, -1.54, -1.54, -1.54, -1.54, -0.77, -0.83, 0.0, 0.0, 0.0, 0.0, 0.0, 0.0, 0.0, 0.0, 0.0, 0.0, -0.57, -0.57, -0.57, -1.12, -1.2, -1.2, -1.2, -1.12, -1.12, -1.12, -1.12, -1.12, -1.12, -1.2, -1.1, -1.73, -1.61, -1.71, -1.71, -1.71, -1.69, -1.69, -1.69, -1.69, -1.78, -1.78, -1.67, -1.67, -1.67, -1.67, -1.78, -1.69, -1.69, -1.69, -1.69, -1.71, -1.71, -2.26, -3.37, -3.97, -2.28, -1.14, -1.12, -1.14, -1.14, -1.14, -1.67, -1.65, -2.12, -2.4, -2.89, -2.89, -2.89, -2.92, -2.96, -3.0, -1.84, -1.4, 0.0, 0.0, 0.0, 0.0, 0.0, 0.0, 0.0, 0.0, -1.22, -0.85, -1.23, 0.0, 1.6, 2.42, 0.82, 0.0, -0.73, -0.74, -0.68, -0.71, -0.71, -0.8, -0.77, -0.77, -1.54, -1.54, -1.54, -1.54, -1.54, -0.77, -0.8, 0.0, 0.0, 0.0, 0.0, 0.0, 0.0, 0.0, 0.0, 0.0, -0.57, -0.57, -0.57, -1.12, -1.2, -1.2, -1.2, -1.12, -1.12, -1.12, -1.12, -1.12, -1.12, -1.2, -1.1, -1.73, -1.73, -1.71, -1.71, -1.71, -1.81, -1.69, -1.69, -1.69, -1.69, -1.78, -1.78, -2.33, -2.33, -1.78, -1.69, -1.69, -1.69, -1.81, -1.71, -1.71, -1.71, -2.23, -2.71, -2.83, -2.3, -1.2, -0.58, -0.56, -0.57, -0.53, -0.58, -1.14, -1.14, -1.65, -2.4, -2.89, -3.37, -3.37, -3.4, -2.96, -2.8, -2.4, 0.0, 0.0, 0.0, 0.0, 0.83, 0.89, 0.0, -0.8, -1.6, -2.39, -2.41, -2.44, 0.0, 3.12, 4.04, 3.2, 1.55, 0.71, 0.74, 0.0, 0.0, 0.0, 0.0, 0.0, -0.75, -0.72, -0.77, -1.54, -1.54, -1.54, -0.8, -0.76, -0.76, -0.76, 0.0, 0.0, 0.0, 0.0, 0.0, 0.0, -0.57, -0.57, -0.57, -1.12, -1.12, -1.2, -1.12, -1.12, -1.12, -1.12, -1.12, -1.12, -1.12, -1.2, -1.2, -1.63, -1.73, -1.61, -1.71, -1.71, -1.71, -1.69, -1.69, -2.21, -2.21, -2.33, -2.33, -2.33, -2.33, -2.21, -2.21, -1.69, -1.71, -1.71, -1.71, -1.71, -1.71, -2.37, -2.21, -2.33, -1.78, -1.69, -1.14, -1.16, -0.59, -0.56, 0.0, 0.0, -0.58, -1.12, -1.76, -2.26, -2.73, -3.37, -3.6, -3.4, -2.96, -2.32, -1.25, 0.0, 1.4, 0.89, 1.63, 0.83, 0.0, -1.65, -2.44, -2.39, -2.31, -1.63, 0.0, 1.63, 3.93, 4.88, 5.56, 4.37, 2.19, 0.71, 0.0, 0.0, 0.0, 0.0, -0.74, -0.75, -1.04, -1.48, -1.54, -1.64, -1.58, -1.52, -1.52, -1.52, 0.0, 0.0, 0.0, 0.0, 0.0, 0.0, -0.57, -0.57, -0.57, -1.12, -1.12, -1.12, -1.12, -1.12, -1.12, -1.23, -1.23, -1.12, -1.12, -1.12, -1.76, -1.63, -1.73, -1.73, -1.71, -1.71, -1.71, -1.81, -2.21, -2.21, -2.21, -2.21, -2.33, -2.33, -2.21, -2.21, -2.21, -2.37, -1.71, -1.71, -1.71, -1.71, -1.71, -2.37, -2.21, -2.21, -2.21, -1.69, -1.71, -1.16, -1.09, -0.59, -0.56, -0.56, 0.0, -0.57, -1.12, -1.76, -2.26, -2.92, -3.4, -3.4, -2.96, -2.29, -1.14, 0.0, 0.0, 0.0, 0.0, 0.0, -1.65, -1.75, -1.67, -1.6, -1.62, -0.85, 0.0, 0.0, 2.35, 4.07, 6.42, 5.65, 4.04, 2.15, 0.73, 0.0, -0.7, -1.4, -1.61, -2.13, -2.08, -2.41, -2.34, -2.34, -2.34, -2.41, -2.41, -2.41, 0.0, 0.0, 0.0, 0.0, 0.0, 0.0, -0.57, -0.57, -0.57, -1.12, -1.12, -1.12, -1.12, -1.12, -1.23, -1.23, -1.23, -1.23, -1.12, -1.12, -1.76, -1.63, -1.73, -1.73, -1.71, -1.71, -2.23, -2.37, -2.37, -2.21, -2.21, -2.21, -2.21, -2.21, -2.21, -2.37, -2.37, -2.23, -1.71, -1.71, -1.71, -1.71, -1.71, -2.37, -2.37, -2.21, -1.81, -1.71, -1.71, -1.09, -1.18, -1.1, -0.56, -0.56, -0.56, -0.56, -0.56, -1.1, -1.2, -1.76, -2.44, -2.96, -2.77, -2.32, -1.16, 0.0, 0.0, -1.18, -1.25, -1.73, -1.65, -1.65, -1.75, -1.75, -0.85, 0.0, 0.0, 0.0, 1.55, 3.14, 4.04, 4.79, 4.94, 4.29, 2.15, 0.0, -0.7, -2.2, -3.14, -3.11, -3.19, -2.34, -2.34, -2.25, -2.25, -2.31, -2.31, -2.31, 0.0, 0.0, 0.0, 0.0, 0.0, 0.0, -0.57, -0.57, -0.57, -0.57, -1.12, -1.12, -1.23, -1.14, -1.14, -1.14, -1.14, -1.23, -1.12, -1.12, -1.65, -1.76, -1.63, -1.73, -1.73, -1.71, -2.23, -2.37, -2.37, -2.37, -2.37, -2.37, -2.37, -2.37, -2.37, -2.37, -2.23, -2.23, -1.84, -1.73, -1.73, -1.71, -2.23, -2.23, -2.37, -2.37, -1.71, -1.71, -1.73, -1.73, -1.1, -1.2, -1.1, -1.1, -0.59, -0.59, -0.59, -1.18, -1.1, -1.2, -1.76, -2.29, -2.32, -2.18, -1.73, -1.32, -1.4, -1.18, -1.25, -1.73, -0.84, -0.84, -0.8, -0.85, -0.81, -0.78, 0.0, 0.0, 1.58, 2.44, 2.39, 3.13, 4.79, 5.87, 4.4, 1.42, 0.0, -2.81, -5.02, -4.84, -4.75, -3.91, -3.29, -3.16, -3.16, -3.02, -3.02, -3.02, 0.0, 0.0, 0.0, 0.0, 0.0, 0.0, -0.57, -0.57, -0.57, -0.57, -1.12, -1.14, -1.14, -1.14, -1.14, -1.14, -1.23, -1.23, -1.12, -1.65, -1.65, -1.76, -1.63, -1.73, -1.73, -2.23, -2.23, -2.23, -2.37, -2.37, -2.37, -2.37, -2.37, -2.23, -2.23, -2.23, -2.23, -2.23, -2.26, -1.73, -1.73, -2.26, -2.23, -2.23, -2.37, -2.23, -1.71, -1.73, -1.73, -1.63, -1.2, -1.12, -1.12, -1.2, -1.18, -1.18, -1.18, -1.18, -1.18, -1.1, -1.76, -2.32, -2.36, -2.4, -2.22, -2.6, -1.72, -0.83, -0.83, -1.65, -1.75, -1.67, -1.58, -1.67, -0.81, -0.81, 0.0, 0.0, 0.79, 1.58, 1.6, 2.39, 3.95, 5.61, 5.01, 2.91, -1.38, -3.68, -5.77, -6.53, -5.77, -5.51, -4.68, -3.85, -3.69, -3.11, -3.11, -3.11, 0.0, 0.0, 0.0, 0.0, 0.0, 0.0, -0.57, -0.57, -0.57, -0.53, -1.14, -1.14, -1.14, -1.14, -1.14, -1.14, -1.23, -1.23, -1.65, -1.65, -1.65, -1.76, -1.76, -1.73, -1.73, -2.26, -2.23, -2.23, -2.23, -2.23, -2.23, -2.23, -2.23, -2.23, -2.23, -2.23, -2.23, -2.4, -2.26, -2.26, -2.26, -2.26, -2.23, -2.23, -2.23, -2.23, -1.71, -1.73, -1.73, -1.63, -1.2, -1.12, -1.12, -1.63, -1.73, -1.73, -1.61, -1.61, -1.73, -1.73, -1.76, -1.65, -2.36, -2.4, -2.44, -2.6, -2.6, -1.72, -1.84, -1.73, -2.54, -2.69, -2.44, -1.67, -1.67, -0.85, 0.0, 0.0, 0.0, 0.79, 0.8, 1.64, 2.45, 3.2, 3.18, 0.71, 0.0, -2.15, -5.04, -6.51, -7.15, -7.15, -5.86, -4.8, -4.07, -3.21, -3.21, -3.21, 0.0, 0.0, 0.0, 0.0, 0.0, 0.0, -0.57, -0.57, -0.53, -0.58, -1.14, -1.14, -1.14, -1.14, -1.14, -1.14, -1.23, -1.8, -1.65, -1.65, -1.65, -1.65, -1.76, -1.63, -2.26, -2.26, -2.4, -2.23, -2.23, -2.23, -2.23, -2.23, -2.23, -2.23, -2.23, -2.23, -2.23, -2.26, -2.26, -2.26, -2.26, -2.26, -2.4, -2.23, -2.23, -2.23, -1.73, -1.73, -1.76, -1.76, -1.2, -1.65, -1.65, -1.63, -1.73, -1.71, -1.71, -1.71, -1.71, -1.73, -1.73, -2.29, -2.32, -2.84, -2.86, -2.86, -2.8, -2.6, -2.47, -2.64, -2.51, -3.4, -3.45, -4.12, -2.44, -1.67, -0.85, 0.0, 0.0, 0.0, 0.0, 0.0, 0.0, 0.0, 0.0, 0.0, 0.0, -1.39, -2.23, -4.46, -6.64, -7.96, -7.18, -6.42, -4.83, -4.12, -4.12, -4.12, 0.0, 0.0, 0.0, 0.0, 0.0, -0.57, -0.53, -0.53, -0.58, -0.58, -1.14, -1.14, -1.14, -1.14, -1.14, -1.14, -1.8, -1.8, -1.65, -1.65, -1.65, -1.65, -1.76, -1.76, -2.26, -2.26, -2.26, -2.4, -2.4, -2.23, -2.23, -2.4, -2.4, -2.4, -2.4, -2.4, -2.4, -2.26, -2.26, -2.26, -2.26, -2.26, -2.26, -2.4, -2.4, -2.26, -1.73, -1.63, -1.76, -1.76, -1.76, -1.76, -1.76, -2.26, -2.26, -2.23, -2.23, -2.23, -2.23, -2.4, -2.26, -2.29, -2.8, -2.82, -2.84, -3.49, -3.72, -3.72, -2.47, -2.47, -2.64, -3.4, -4.26, -4.83, -3.45, -2.54, -1.58, -0.85, -0.81, -0.82, -0.79, 0.0, 0.0, -0.79, -1.45, -1.41, -1.38, -1.43, -1.45, -2.12, -3.69, -6.7, -7.41, -7.02, -5.89, -4.83, -4.83, -4.83, 0.0, 0.0, 0.0, 0.0, 0.0, -0.53, -0.53, -0.58, -0.58, -0.58, -1.14, -1.14, -1.14, -1.14, -1.14, -1.8, -1.8, -1.8, -1.8, -1.8, -1.65, -1.65, -1.76, -1.76, -2.29, -2.26, -2.26, -2.26, -2.26, -2.4, -2.4, -2.26, -2.26, -2.26, -2.4, -2.4, -2.4, -2.26, -2.26, -2.26, -2.26, -2.26, -2.26, -2.26, -2.26, -2.26, -1.63, -1.76, -1.76, -1.76, -1.76, -1.76, -2.29, -2.44, -2.26, -2.4, -2.23, -2.37, -2.23, -2.4, -2.26, -2.96, -3.0, -3.04, -3.49, -3.49, -3.47, -3.04, -1.84, -1.84, -2.51, -3.4, -3.4, -3.55, -4.16, -4.26, -3.27, -2.44, -2.47, -1.68, -1.54, -0.82, -0.79, -0.8, -0.71, -1.41, -2.11, -2.09, -1.44, -1.45, -2.17, -4.22, -6.44, -7.07, -6.44, -5.37, -5.37, -5.37, 0.0, 0.0, 0.0, 0.0, 0.0, -0.53, -0.53, -0.58, -0.58, -1.14, -1.14, -1.14, -1.14, -1.14, -1.14, -1.8, -1.8, -1.8, -1.8, -1.8, -1.8, -1.65, -1.65, -2.29, -2.29, -2.26, -2.26, -2.26, -2.26, -2.26, -2.26, -2.26, -2.26, -2.26, -2.26, -2.4, -2.4, -2.26, -2.26, -2.26, -2.26, -2.26, -2.26, -2.26, -2.26, -2.26, -1.76, -1.76, -1.76, -1.76, -1.76, -1.76, -2.29, -2.44, -2.75, -2.92, -2.73, -2.89, -2.89, -2.73, -2.92, -2.96, -3.21, -3.45, -3.47, -4.12, -3.84, -3.04, -2.64, -1.73, -1.65, -1.65, -1.65, -1.73, -2.51, -3.4, -5.1, -4.34, -3.49, -3.21, -2.35, -2.47, -0.78, 0.0, 0.0, -0.8, -2.35, -3.23, -2.88, -2.76, -2.95, -2.83, -4.95, -6.44, -6.4, -5.09, -5.09, -5.09, 0.0, 0.0, 0.0, 0.0, -0.57, -0.53, -0.58, -0.58, -0.58, -1.14, -1.14, -1.14, -1.14, -1.14, -1.67, -1.8, -1.8, -1.8, -1.8, -1.8, -1.8, -1.8, -1.65, -2.29, -2.29, -2.29, -2.26, -2.26, -2.26, -2.26, -2.26, -2.26, -2.26, -2.26, -2.26, -2.26, -2.26, -2.26, -2.26, -2.26, -2.44, -2.44, -2.44, -2.44, -2.29, -2.29, -1.76, -1.76, -1.76, -1.76, -2.29, -2.29, -2.29, -2.96, -2.75, -2.92, -2.73, -2.89, -2.89, -2.89, -3.4, -3.4, -3.42, -3.45, -3.72, -3.84, -4.12, -3.47, -3.04, -2.51, -1.73, -1.55, -0.84, -0.84, -0.84, -1.75, -3.45, -4.96, -4.2, -4.2, -3.32, -2.39, -1.58, 0.0, 0.0, 0.0, -1.38, -2.82, -4.4, -5.18, -4.31, -3.61, -3.0, -4.54, -5.51, -4.8, -4.8, -4.8, 0.0, 0.0, 0.0, 0.0, -0.57, -0.53, -0.58, -0.58, -1.14, -1.14, -1.14, -1.14, -1.14, -1.67, -1.67, -1.8, -1.8, -1.8, -1.8, -1.8, -1.8, -1.8, -2.32, -2.29, -2.29, -2.29, -2.29, -2.44, -2.26, -2.26, -2.26, -2.26, -2.26, -2.26, -2.26, -2.26, -2.26, -2.26, -2.26, -2.44, -2.29, -2.29, -2.29, -2.29, -2.29, -2.29, -2.29, -2.29, -2.29, -2.29, -2.29, -2.29, -2.77, -2.96, -2.96, -3.4, -3.37, -3.37, -3.56, -3.37, -3.37, -3.4, -4.08, -3.84, -3.85, -4.12, -3.84, -3.84, -3.47, -3.55, -2.51, -2.51, -2.51, -1.73, -1.84, -2.54, -3.45, -4.34, -4.2, -4.2, -3.49, -3.36, -2.31, -1.55, 0.0, 0.0, 0.0, -1.47, -3.69, -6.01, -5.21, -3.69, -2.4, -2.84, -3.9, -3.9, -3.9, -3.9, 0.0, 0.0, 0.0, 0.0, -0.57, -0.58, -0.58, -1.14, -1.14, -1.14, -1.14, -1.14, -1.14, -1.67, -1.67, -1.8, -1.8, -1.8, -1.8, -1.8, -1.8, -2.32, -2.32, -2.14, -2.29, -2.29, -2.29, -2.29, -2.29, -2.44, -2.26, -2.26, -2.26, -2.26, -2.26, -2.26, -2.26, -2.26, -2.44, -2.29, -2.29, -2.29, -2.29, -2.29, -2.29, -2.29, -2.29, -2.29, -2.29, -2.29, -2.29, -2.29, -2.77, -2.96, -3.42, -3.4, -3.6, -3.37, -3.56, -4.03, -4.03, -4.05, -4.05, -4.08, -4.1, -3.85, -4.12, -4.12, -4.12, -4.42, -4.42, -3.55, -2.64, -2.64, -3.2, -3.27, -4.12, -4.34, -4.2, -4.2, -3.49, -3.36, -3.39, -2.53, -1.58, -0.8, 0.0, -0.74, -1.52, -3.79, -4.46, -3.07, -1.49, -1.98, -2.21, -2.4, -2.4, -2.4, 0.0, 0.0, 0.0, -0.57, -0.53, -0.58, -0.58, -1.14, -1.14, -1.14, -1.14, -1.14, -1.67, -1.67, -1.67, -1.8, -1.8, -1.8, -1.8, -1.8, -2.32, -2.32, -2.32, -2.32, -2.14, -2.29, -2.29, -2.29, -2.29, -2.29, -2.29, -2.44, -2.26, -2.26, -2.26, -2.26, -2.26, -2.44, -2.29, -2.29, -2.29, -2.29, -2.29, -2.29, -2.29, -2.29, -2.29, -2.29, -2.29, -2.29, -2.29, -2.29, -2.77, -3.42, -3.64, -3.83, -4.05, -3.81, -4.03, -4.03, -4.03, -4.03, -4.05, -3.83, -4.08, -4.1, -3.85, -3.85, -4.47, -4.1, -3.84, -3.4, -2.64, -1.84, -2.51, -2.54, -3.45, -3.45, -4.34, -4.0, -3.49, -3.25, -3.16, -3.32, -3.17, -2.43, -0.76, 0.0, 0.0, -1.8, -2.6, -2.6, -1.6, -0.98, -1.13, -1.2, -1.2, -1.2, 0.0, 0.0, -0.53, -0.58, -0.58, -0.58, -1.14, -1.14, -1.14, -1.14, -1.14, -1.67, -1.67, -1.67, -1.67, -1.67, -1.67, -1.67, -1.67, -2.16, -2.32, -2.32, -2.32, -2.32, -2.32, -2.14, -2.29, -2.29, -2.29, -2.29, -2.29, -2.29, -2.44, -2.26, -2.26, -2.26, -2.44, -2.29, -2.29, -2.29, -2.29, -2.29, -2.14, -2.29, -2.29, -2.29, -2.29, -2.29, -2.29, -2.29, -2.29, -2.77, -2.77, -3.42, -4.08, -3.83, -4.05, -4.05, -3.81, -4.03, -4.03, -4.71, -4.05, -4.05, -4.08, -3.84, -4.1, -4.1, -4.47, -4.47, -3.84, -3.27, -1.63, 0.0, -0.83, -1.65, -2.54, -3.45, -4.34, -4.2, -4.4, -3.95, -4.01, -4.06, -3.91, -2.35, -1.61, -0.82, 0.0, -0.72, -1.74, -2.6, -2.53, -1.49, -1.49, -1.6, -1.6, -1.6, -0.58, -0.58, -0.58, -0.58, -0.58, -0.58, -1.14, -1.14, -1.14, -1.14, -1.67, -1.67, -1.67, -1.67, -1.67, -1.67, -1.67, -2.16, -2.16, -2.16, -2.16, -2.16, -2.32, -2.32, -2.32, -2.32, -2.32, -2.14, -2.29, -2.29, -2.29, -2.29, -2.44, -2.44, -2.44, -2.96, -2.77, -2.29, -2.29, -2.29, -2.29, -2.32, -2.32, -2.32, -2.29, -2.29, -2.29, -2.29, -2.49, -2.32, -3.0, -2.77, -3.42, -4.08, -4.08, -4.08, -3.83, -4.05, -4.05, -4.05, -4.05, -4.05, -4.05, -3.83, -4.08, -4.08, -3.84, -3.84, -4.1, -4.1, -3.84, -2.77, -1.67, 0.0, 0.0, -0.89, -1.65, -3.15, -4.0, -4.2, -4.71, -4.8, -5.0, -4.75, -3.87, -2.47, -1.65, -0.82, -0.78, -0.89, -2.53, -3.6, -3.74, -3.16, -2.3, -2.0, -2.0, -2.0, -0.58, -0.58, -0.58, -0.58, -0.58, -0.58, -1.14, -1.14, -1.14, -1.14, -1.67, -1.67, -1.67, -1.67, -1.67, -1.67, -1.67, -2.16, -2.16, -2.16, -2.16, -2.16, -2.32, -2.32, -2.32, -2.32, -2.32, -2.14, -2.29, -2.29, -2.29, -2.29, -2.44, -2.44, -2.44, -2.96, -2.77, -2.29, -2.29, -2.29, -2.29, -2.32, -2.32, -2.32, -2.29, -2.29, -2.29, -2.29, -2.49, -2.32, -3.0, -2.77, -3.42, -4.08, -4.08, -4.08, -3.83, -4.05, -4.05, -4.05, -4.05, -4.05, -4.05, -3.83, -4.08, -4.08, -3.84, -3.84, -4.1, -4.1, -3.84, -2.77, -1.67, 0.0, 0.0, -0.89, -2.69, -3.15, -4.0, -4.2, -4.71, -5.14, -5.0, -4.87, -4.06, -3.23, -1.6, -1.63, -0.82, -1.6, -2.64, -3.58, -4.38, -4.0, -3.58, -3.16, -3.16, -3.16]}]